Time,TemperatureF,DewpointF,PressureIn,WindDirection,WindDirectionDegrees,WindSpeedMPH,WindSpeedGustMPH,Humidity,HourlyPrecipIn,Conditions,Clouds,dailyrainin,SolarRadiationWatts/m^2,SoftwareType,DateUTC
2013-02-10 00:00:00,41.1,34.1,30.06,SSE,155,0.0,0.0,76,0.00,RA,FEW,0.00,0.0,WeatherDisplay:10.37,2013-02-10 08:00:00,
2013-02-10 00:01:00,40.9,33.9,30.06,SSE,155,0.0,0.0,76,0.00,RA,FEW,0.00,0.0,WeatherDisplay:10.37,2013-02-10 08:01:00,
2013-02-10 00:04:00,40.9,33.9,30.06,SSE,155,0.0,0.0,76,0.00,RA,FEW,0.00,0.0,WeatherDisplay:10.37,2013-02-10 08:04:00,
2013-02-10 00:05:00,40.8,34.1,30.06,SSE,155,0.0,0.0,77,0.00,RA,FEW,0.00,0.0,WeatherDisplay:10.37,2013-02-10 08:05:00,
2013-02-10 00:06:00,40.8,34.1,30.06,SSE,155,0.0,0.0,77,0.00,RA,FEW,0.00,0.0,WeatherDisplay:10.37,2013-02-10 08:06:00,
2013-02-10 00:10:00,40.8,34.1,30.06,SSE,155,0.0,0.0,77,0.00,RA,FEW,0.00,0.0,WeatherDisplay:10.37,2013-02-10 08:10:00,
2013-02-10 00:11:00,40.8,34.1,30.06,SSE,155,0.0,0.0,77,0.00,CLR,FEW,0.00,0.0,WeatherDisplay:10.37,2013-02-10 08:11:00,
2013-02-10 00:13:00,40.6,34.0,30.06,SSE,155,0.0,0.0,77,0.00,CLR,FEW,0.00,0.0,WeatherDisplay:10.37,2013-02-10 08:13:00,
2013-02-10 00:14:00,40.6,34.0,30.06,SSE,155,0.0,0.0,77,0.00,CLR,FEW,0.00,0.0,WeatherDisplay:10.37,2013-02-10 08:14:00,
2013-02-10 00:16:00,40.6,34.0,30.06,SSE,155,0.0,0.0,77,0.00,CLR,FEW,0.00,0.0,WeatherDisplay:10.37,2013-02-10 08:16:00,
2013-02-10 00:19:00,40.6,34.0,30.06,SSE,155,0.0,0.0,77,0.00,CLR,FEW,0.00,0.0,WeatherDisplay:10.37,2013-02-10 08:19:00,
2013-02-10 00:21:00,40.6,34.3,30.06,SSE,155,0.0,0.0,78,0.00,CLR,FEW,0.00,0.0,WeatherDisplay:10.37,2013-02-10 08:21:00,
2013-02-10 00:24:00,40.6,34.3,30.06,SSE,155,0.0,0.0,78,0.00,CLR,FEW,0.00,0.0,WeatherDisplay:10.37,2013-02-10 08:24:00,
2013-02-10 00:26:00,40.5,34.2,30.06,SSE,155,0.0,0.0,78,0.00,CLR,FEW,0.00,0.0,WeatherDisplay:10.37,2013-02-10 08:26:00,
2013-02-10 00:29:00,40.5,34.2,30.06,SSE,155,0.0,0.0,78,0.00,CLR,FEW,0.00,0.0,WeatherDisplay:10.37,2013-02-10 08:29:00,
2013-02-10 00:31:00,40.5,34.2,30.06,SSE,155,0.0,0.0,78,0.00,CLR,FEW,0.00,0.0,WeatherDisplay:10.37,2013-02-10 08:31:00,
2013-02-10 00:33:00,40.5,34.2,30.06,SSE,155,0.0,0.0,78,0.00,CLR,FEW,0.00,0.0,WeatherDisplay:10.37,2013-02-10 08:33:00,
2013-02-10 00:35:00,40.3,34.0,30.06,SSE,155,0.0,0.0,78,0.00,CLR,FEW,0.00,0.0,WeatherDisplay:10.37,2013-02-10 08:35:00,
2013-02-10 00:36:00,40.3,34.0,30.06,SSE,155,0.0,0.0,78,0.00,CLR,FEW,0.00,0.0,WeatherDisplay:10.37,2013-02-10 08:36:00,
2013-02-10 00:37:00,40.3,34.0,30.06,SSE,155,0.0,0.0,78,0.00,CLR,FEW,0.00,0.0,WeatherDisplay:10.37,2013-02-10 08:37:00,
2013-02-10 00:38:00,40.3,34.0,30.06,SSE,155,0.0,0.0,78,0.00,CLR,FEW,0.00,0.0,WeatherDisplay:10.37,2013-02-10 08:38:00,
2013-02-10 00:41:00,40.2,33.9,30.06,SSE,155,0.0,0.0,78,0.00,CLR,FEW,0.00,0.0,WeatherDisplay:10.37,2013-02-10 08:41:00,
2013-02-10 00:42:00,40.2,33.9,30.06,SSE,155,0.0,0.0,78,0.00,CLR,FEW,0.00,0.0,WeatherDisplay:10.37,2013-02-10 08:42:00,
2013-02-10 00:43:00,40.2,33.9,30.06,SSE,155,0.0,0.0,78,0.00,CLR,FEW,0.00,0.0,WeatherDisplay:10.37,2013-02-10 08:43:00,
2013-02-10 00:46:00,40.2,33.9,30.06,SSE,155,0.0,0.0,78,0.00,CLR,FEW,0.00,0.0,WeatherDisplay:10.37,2013-02-10 08:46:00,
2013-02-10 00:47:00,40.1,33.8,30.06,SSE,155,0.0,0.0,78,0.00,CLR,FEW,0.00,0.0,WeatherDisplay:10.37,2013-02-10 08:47:00,
2013-02-10 00:49:00,40.1,33.8,30.06,SSE,155,0.0,0.0,78,0.00,CLR,FEW,0.00,0.0,WeatherDisplay:10.37,2013-02-10 08:49:00,
2013-02-10 00:51:00,40.1,33.8,30.06,SSE,155,0.0,0.0,78,0.00,CLR,FEW,0.00,0.0,WeatherDisplay:10.37,2013-02-10 08:51:00,
2013-02-10 00:53:00,39.9,33.6,30.06,SSE,155,0.0,0.0,78,0.00,CLR,FEW,0.00,0.0,WeatherDisplay:10.37,2013-02-10 08:53:00,
2013-02-10 00:54:00,39.9,33.6,30.06,SSE,155,0.0,0.0,78,0.00,CLR,FEW,0.00,0.0,WeatherDisplay:10.37,2013-02-10 08:54:00,
2013-02-10 00:55:00,39.9,33.6,30.06,SSE,155,0.0,0.0,78,0.00,CLR,FEW,0.00,0.0,WeatherDisplay:10.37,2013-02-10 08:55:00,
2013-02-10 00:57:00,39.9,33.6,30.06,SSE,155,0.0,0.0,78,0.00,CLR,FEW,0.00,0.0,WeatherDisplay:10.37,2013-02-10 08:57:00,
2013-02-10 00:58:00,39.9,33.9,30.06,SSE,155,0.0,0.0,79,0.00,CLR,FEW,0.00,0.0,WeatherDisplay:10.37,2013-02-10 08:58:00,
2013-02-10 01:00:00,39.8,33.8,30.06,SSE,155,0.0,0.0,79,0.00,CLR,FEW,0.00,0.0,WeatherDisplay:10.37,2013-02-10 09:00:00,
2013-02-10 01:01:00,39.8,33.8,30.06,SSE,155,0.0,0.0,79,0.00,CLR,FEW,0.00,0.0,WeatherDisplay:10.37,2013-02-10 09:01:00,
2013-02-10 01:02:00,39.8,33.8,30.06,SSE,155,0.0,0.0,79,0.00,CLR,FEW,0.00,0.0,WeatherDisplay:10.37,2013-02-10 09:02:00,
2013-02-10 01:04:00,39.6,33.6,30.06,SSE,155,0.0,0.0,79,0.00,CLR,FEW,0.00,0.0,WeatherDisplay:10.37,2013-02-10 09:04:00,
2013-02-10 01:05:00,39.6,33.6,30.06,SSE,155,0.0,0.0,79,0.00,CLR,FEW,0.00,0.0,WeatherDisplay:10.37,2013-02-10 09:05:00,
2013-02-10 01:06:00,39.5,33.5,30.06,SSE,155,0.0,0.0,79,0.00,CLR,FEW,0.00,0.0,WeatherDisplay:10.37,2013-02-10 09:06:00,
2013-02-10 01:07:00,39.5,33.5,30.06,SSE,155,0.0,0.0,79,0.00,CLR,FEW,0.00,0.0,WeatherDisplay:10.37,2013-02-10 09:07:00,
2013-02-10 01:10:00,39.5,33.5,30.06,SSE,155,0.0,0.0,79,0.00,CLR,FEW,0.00,0.0,WeatherDisplay:10.37,2013-02-10 09:10:00,
2013-02-10 01:12:00,39.5,33.5,30.06,SSE,155,0.0,0.0,79,0.00,CLR,FEW,0.00,0.0,WeatherDisplay:10.37,2013-02-10 09:12:00,
2013-02-10 01:13:00,39.5,33.5,30.06,SSE,155,0.0,0.0,79,0.00,CLR,FEW,0.00,0.0,WeatherDisplay:10.37,2013-02-10 09:13:00,
2013-02-10 01:16:00,39.3,33.6,30.06,SSE,155,0.0,0.0,80,0.00,CLR,FEW,0.00,0.0,WeatherDisplay:10.37,2013-02-10 09:16:00,
2013-02-10 01:18:00,39.2,33.2,30.06,SSE,155,0.0,0.0,79,0.00,CLR,FEW,0.00,0.0,WeatherDisplay:10.37,2013-02-10 09:18:00,
2013-02-10 01:22:00,38.9,33.3,30.06,SSE,155,0.0,0.0,80,0.00,CLR,FEW,0.00,0.0,WeatherDisplay:10.37,2013-02-10 09:22:00,
2013-02-10 01:23:00,38.9,33.3,30.06,SSE,155,0.0,0.0,80,0.00,CLR,FEW,0.00,0.0,WeatherDisplay:10.37,2013-02-10 09:23:00,
2013-02-10 01:24:00,38.9,33.3,30.06,SSE,155,0.0,0.0,80,0.00,CLR,FEW,0.00,0.0,WeatherDisplay:10.37,2013-02-10 09:24:00,
2013-02-10 01:28:00,38.9,33.6,30.06,SSE,155,0.0,0.0,81,0.00,CLR,FEW,0.00,0.0,WeatherDisplay:10.37,2013-02-10 09:28:00,
2013-02-10 01:29:00,39.1,33.8,30.06,SSE,155,0.0,0.0,81,0.00,CLR,FEW,0.00,0.0,WeatherDisplay:10.37,2013-02-10 09:29:00,
2013-02-10 01:30:00,39.1,33.8,30.06,SSE,155,0.0,0.0,81,0.00,CLR,FEW,0.00,0.0,WeatherDisplay:10.37,2013-02-10 09:30:00,
2013-02-10 01:34:00,39.1,33.8,30.06,SSE,155,0.0,0.0,81,0.00,CLR,FEW,0.00,0.0,WeatherDisplay:10.37,2013-02-10 09:34:00,
2013-02-10 01:35:00,39.1,33.8,30.06,SSE,155,0.0,0.0,81,0.00,CLR,FEW,0.00,0.0,WeatherDisplay:10.37,2013-02-10 09:35:00,
2013-02-10 01:40:00,39.1,33.8,30.06,SSE,155,0.0,0.0,81,0.00,CLR,FEW,0.00,0.0,WeatherDisplay:10.37,2013-02-10 09:40:00,
2013-02-10 01:41:00,39.1,33.8,30.06,SSE,155,0.0,0.0,81,0.00,CLR,FEW,0.00,0.0,WeatherDisplay:10.37,2013-02-10 09:41:00,
2013-02-10 01:45:00,38.9,33.6,30.05,SSE,155,0.0,0.0,81,0.00,CLR,FEW,0.00,0.0,WeatherDisplay:10.37,2013-02-10 09:45:00,
2013-02-10 01:46:00,38.9,33.6,30.05,SSE,155,0.0,0.0,81,0.00,CLR,FEW,0.00,0.0,WeatherDisplay:10.37,2013-02-10 09:46:00,
2013-02-10 01:47:00,38.9,33.6,30.05,SSE,155,0.0,0.0,81,0.00,CLR,FEW,0.00,0.0,WeatherDisplay:10.37,2013-02-10 09:47:00,
2013-02-10 01:48:00,38.9,33.6,30.05,SSE,155,0.0,0.0,81,0.00,CLR,FEW,0.00,0.0,WeatherDisplay:10.37,2013-02-10 09:48:00,
2013-02-10 01:51:00,38.9,33.6,30.05,SSE,155,0.0,0.0,81,0.00,CLR,FEW,0.00,0.0,WeatherDisplay:10.37,2013-02-10 09:51:00,
2013-02-10 01:52:00,38.9,33.6,30.05,SSE,155,0.0,0.0,81,0.00,CLR,FEW,0.00,0.0,WeatherDisplay:10.37,2013-02-10 09:52:00,
2013-02-10 01:53:00,38.9,33.6,30.05,SSE,155,0.0,0.0,81,0.00,CLR,FEW,0.00,0.0,WeatherDisplay:10.37,2013-02-10 09:53:00,
2013-02-10 01:56:00,38.8,33.5,30.05,SSE,155,0.0,0.0,81,0.00,CLR,FEW,0.00,0.0,WeatherDisplay:10.37,2013-02-10 09:56:00,
2013-02-10 01:57:00,38.8,33.5,30.05,SSE,155,0.0,0.0,81,0.00,CLR,FEW,0.00,0.0,WeatherDisplay:10.37,2013-02-10 09:57:00,
2013-02-10 01:58:00,38.8,33.5,30.05,SSE,155,0.0,0.0,81,0.00,CLR,FEW,0.00,0.0,WeatherDisplay:10.37,2013-02-10 09:58:00,
2013-02-10 02:01:00,38.8,33.5,30.04,SSE,155,0.0,0.0,81,0.00,CLR,FEW,0.00,0.0,WeatherDisplay:10.37,2013-02-10 10:01:00,
2013-02-10 02:02:00,38.8,33.5,30.04,SSE,155,0.0,0.0,81,0.00,CLR,FEW,0.00,0.0,WeatherDisplay:10.37,2013-02-10 10:02:00,
2013-02-10 02:03:00,38.8,33.5,30.04,SSE,155,0.0,0.0,81,0.00,CLR,FEW,0.00,0.0,WeatherDisplay:10.37,2013-02-10 10:03:00,
2013-02-10 02:04:00,38.6,33.3,30.04,SSE,155,0.0,0.0,81,0.00,CLR,FEW,0.00,0.0,WeatherDisplay:10.37,2013-02-10 10:04:00,
2013-02-10 02:08:00,38.6,33.3,30.04,SSE,155,0.0,0.0,81,0.00,CLR,FEW,0.00,0.0,WeatherDisplay:10.37,2013-02-10 10:08:00,
2013-02-10 02:09:00,38.6,33.3,30.04,SSE,155,0.0,0.0,81,0.00,CLR,FEW,0.00,0.0,WeatherDisplay:10.37,2013-02-10 10:09:00,
2013-02-10 02:10:00,38.6,33.3,30.04,SSE,155,0.0,0.0,81,0.00,CLR,FEW,0.00,0.0,WeatherDisplay:10.37,2013-02-10 10:10:00,
2013-02-10 02:14:00,38.6,33.3,30.04,SSE,155,0.0,0.0,81,0.00,CLR,FEW,0.00,0.0,WeatherDisplay:10.37,2013-02-10 10:14:00,
2013-02-10 02:15:00,38.6,33.3,30.04,SSE,155,0.0,0.0,81,0.00,CLR,FEW,0.00,0.0,WeatherDisplay:10.37,2013-02-10 10:15:00,
2013-02-10 02:19:00,38.0,32.7,30.04,East,98,0.0,0.0,81,0.00,CLR,FEW,0.00,0.0,WeatherDisplay:10.37,2013-02-10 10:19:00,
2013-02-10 02:20:00,37.9,32.6,30.04,East,98,0.0,0.0,81,0.00,CLR,FEW,0.00,0.0,WeatherDisplay:10.37,2013-02-10 10:20:00,
2013-02-10 02:24:00,37.8,32.8,30.04,East,98,1.6,2.3,82,0.00,CLR,FEW,0.00,0.0,WeatherDisplay:10.37,2013-02-10 10:24:00,
2013-02-10 02:25:00,37.7,32.7,30.04,East,99,1.0,0.0,82,0.00,CLR,FEW,0.00,0.0,WeatherDisplay:10.37,2013-02-10 10:25:00,
2013-02-10 02:26:00,37.8,32.8,30.04,East,98,1.6,3.5,82,0.00,CLR,FEW,0.00,0.0,WeatherDisplay:10.37,2013-02-10 10:26:00,
2013-02-10 02:29:00,37.5,32.5,30.04,East,98,0.0,0.0,82,0.00,CLR,FEW,0.00,0.0,WeatherDisplay:10.37,2013-02-10 10:29:00,
2013-02-10 02:30:00,37.5,32.5,30.03,East,98,0.0,0.0,82,0.00,CLR,FEW,0.00,0.0,WeatherDisplay:10.37,2013-02-10 10:30:00,
2013-02-10 02:31:00,37.3,32.3,30.03,East,98,0.0,0.0,82,0.00,CLR,FEW,0.00,0.0,WeatherDisplay:10.37,2013-02-10 10:31:00,
2013-02-10 02:32:00,37.3,32.3,30.03,East,98,0.0,0.0,82,0.00,CLR,FEW,0.00,0.0,WeatherDisplay:10.37,2013-02-10 10:32:00,
2013-02-10 02:34:00,37.3,32.3,30.03,East,98,0.0,0.0,82,0.00,CLR,FEW,0.00,0.0,WeatherDisplay:10.37,2013-02-10 10:34:00,
2013-02-10 02:35:00,37.3,32.3,30.03,East,98,0.0,0.0,82,0.00,CLR,FEW,0.00,0.0,WeatherDisplay:10.37,2013-02-10 10:35:00,
2013-02-10 02:36:00,37.2,32.2,30.03,East,98,0.0,0.0,82,0.00,CLR,FEW,0.00,0.0,WeatherDisplay:10.37,2013-02-10 10:36:00,
2013-02-10 02:37:00,37.2,32.2,30.03,East,98,0.0,0.0,82,0.00,CLR,FEW,0.00,0.0,WeatherDisplay:10.37,2013-02-10 10:37:00,
2013-02-10 02:39:00,36.9,31.9,30.03,East,98,0.0,0.0,82,0.00,CLR,FEW,0.00,0.0,WeatherDisplay:10.37,2013-02-10 10:39:00,
2013-02-10 02:40:00,36.9,31.9,30.03,East,98,0.0,0.0,82,0.00,CLR,FEW,0.00,0.0,WeatherDisplay:10.37,2013-02-10 10:40:00,
2013-02-10 02:42:00,36.9,31.9,30.03,East,98,0.0,0.0,82,0.00,CLR,FEW,0.00,0.0,WeatherDisplay:10.37,2013-02-10 10:42:00,
2013-02-10 02:44:00,37.0,32.0,30.03,East,98,0.5,0.0,82,0.00,CLR,FEW,0.00,0.0,WeatherDisplay:10.37,2013-02-10 10:44:00,
2013-02-10 02:46:00,37.0,32.0,30.03,East,93,0.0,0.0,82,0.00,CLR,FEW,0.00,0.0,WeatherDisplay:10.37,2013-02-10 10:46:00,
2013-02-10 02:49:00,37.0,32.0,30.03,East,84,0.0,0.0,82,0.00,CLR,FEW,0.00,0.0,WeatherDisplay:10.37,2013-02-10 10:49:00,
2013-02-10 02:51:00,36.9,31.9,30.03,East,84,0.0,0.0,82,0.00,CLR,FEW,0.00,0.0,WeatherDisplay:10.37,2013-02-10 10:51:00,
2013-02-10 02:52:00,36.8,31.8,30.03,East,84,0.0,0.0,82,0.00,CLR,FEW,0.00,0.0,WeatherDisplay:10.37,2013-02-10 10:52:00,
2013-02-10 02:54:00,36.8,31.8,30.03,East,84,0.3,0.0,82,0.00,CLR,FEW,0.00,0.0,WeatherDisplay:10.37,2013-02-10 10:54:00,
2013-02-10 02:55:00,36.8,31.8,30.03,East,84,0.3,1.1,82,0.00,CLR,FEW,0.00,0.0,WeatherDisplay:10.37,2013-02-10 10:55:00,
2013-02-10 02:57:00,36.8,31.8,30.03,East,84,0.0,0.0,82,0.00,CLR,FEW,0.00,0.0,WeatherDisplay:10.37,2013-02-10 10:57:00,
2013-02-10 02:59:00,36.8,31.8,30.03,East,84,0.0,0.0,82,0.00,CLR,FEW,0.00,0.0,WeatherDisplay:10.37,2013-02-10 10:59:00,
2013-02-10 03:02:00,36.9,31.9,30.02,East,84,0.0,0.0,82,0.00,CLR,FEW,0.00,0.0,WeatherDisplay:10.37,2013-02-10 11:02:00,
2013-02-10 03:03:00,36.9,31.9,30.02,East,84,0.0,0.0,82,0.00,CLR,FEW,0.00,0.0,WeatherDisplay:10.37,2013-02-10 11:03:00,
2013-02-10 03:04:00,36.9,31.9,30.02,East,85,0.0,0.0,82,0.00,CLR,FEW,0.00,0.0,WeatherDisplay:10.37,2013-02-10 11:04:00,
2013-02-10 03:05:00,36.9,31.9,30.02,East,85,0.0,0.0,82,0.00,CLR,FEW,0.00,0.0,WeatherDisplay:10.37,2013-02-10 11:05:00,
2013-02-10 03:07:00,36.9,31.6,30.02,East,85,0.0,0.0,81,0.00,CLR,FEW,0.00,0.0,WeatherDisplay:10.37,2013-02-10 11:07:00,
2013-02-10 03:09:00,37.0,32.0,30.02,East,85,0.1,0.0,82,0.00,CLR,FEW,0.00,0.0,WeatherDisplay:10.37,2013-02-10 11:09:00,
2013-02-10 03:11:00,37.0,31.7,30.02,East,85,0.0,0.0,81,0.00,CLR,FEW,0.00,0.0,WeatherDisplay:10.37,2013-02-10 11:11:00,
2013-02-10 03:12:00,37.0,31.7,30.02,East,85,0.0,0.0,81,0.00,CLR,FEW,0.00,0.0,WeatherDisplay:10.37,2013-02-10 11:12:00,
2013-02-10 03:15:00,36.9,31.6,30.02,East,82,0.0,0.0,81,0.00,CLR,FEW,0.00,0.0,WeatherDisplay:10.37,2013-02-10 11:15:00,
2013-02-10 03:17:00,36.9,31.6,30.02,East,80,0.0,0.0,81,0.00,CLR,FEW,0.00,0.0,WeatherDisplay:10.37,2013-02-10 11:17:00,
2013-02-10 03:20:00,36.9,31.6,30.02,East,80,0.0,0.0,81,0.00,CLR,FEW,0.00,0.0,WeatherDisplay:10.37,2013-02-10 11:20:00,
2013-02-10 03:22:00,36.8,31.5,30.02,East,80,0.0,0.0,81,0.00,CLR,FEW,0.00,0.0,WeatherDisplay:10.37,2013-02-10 11:22:00,
2013-02-10 03:24:00,36.8,31.5,30.02,East,80,0.0,0.0,81,0.00,CLR,FEW,0.00,0.0,WeatherDisplay:10.37,2013-02-10 11:24:00,
2013-02-10 03:27:00,36.8,31.5,30.02,East,80,0.0,0.0,81,0.00,CLR,FEW,0.00,0.0,WeatherDisplay:10.37,2013-02-10 11:27:00,
2013-02-10 03:28:00,36.8,31.5,30.02,East,80,0.0,0.0,81,0.00,CLR,FEW,0.00,0.0,WeatherDisplay:10.37,2013-02-10 11:28:00,
2013-02-10 03:29:00,36.8,31.5,30.02,East,80,0.0,0.0,81,0.00,CLR,FEW,0.00,0.0,WeatherDisplay:10.37,2013-02-10 11:29:00,
2013-02-10 03:32:00,36.8,31.5,30.02,East,93,0.2,0.0,81,0.00,CLR,FEW,0.00,0.0,WeatherDisplay:10.37,2013-02-10 11:32:00,
2013-02-10 03:33:00,36.8,31.5,30.02,East,92,0.8,1.1,81,0.00,CLR,FEW,0.00,0.0,WeatherDisplay:10.37,2013-02-10 11:33:00,
2013-02-10 03:34:00,36.6,31.3,30.02,East,92,0.6,2.3,81,0.00,CLR,FEW,0.00,0.0,WeatherDisplay:10.37,2013-02-10 11:34:00,
2013-02-10 03:36:00,36.6,31.3,30.02,East,92,0.0,0.0,81,0.00,CLR,FEW,0.00,0.0,WeatherDisplay:10.37,2013-02-10 11:36:00,
2013-02-10 03:37:00,36.5,30.9,30.02,East,92,0.0,0.0,80,0.00,CLR,FEW,0.00,0.0,WeatherDisplay:10.37,2013-02-10 11:37:00,
2013-02-10 03:38:00,36.3,30.7,30.02,East,92,0.0,0.0,80,0.00,CLR,FEW,0.00,0.0,WeatherDisplay:10.37,2013-02-10 11:38:00,
2013-02-10 03:39:00,36.2,30.6,30.02,East,92,0.0,0.0,80,0.00,CLR,FEW,0.00,0.0,WeatherDisplay:10.37,2013-02-10 11:39:00,
2013-02-10 03:43:00,35.8,30.2,30.02,East,92,0.0,0.0,80,0.00,CLR,FEW,0.00,0.0,WeatherDisplay:10.37,2013-02-10 11:43:00,
2013-02-10 03:44:00,35.8,30.2,30.02,East,92,0.0,0.0,80,0.00,CLR,FEW,0.00,0.0,WeatherDisplay:10.37,2013-02-10 11:44:00,
2013-02-10 03:48:00,35.6,30.0,30.02,East,92,0.0,0.0,80,0.00,CLR,FEW,0.00,0.0,WeatherDisplay:10.37,2013-02-10 11:48:00,
2013-02-10 03:50:00,35.5,29.9,30.02,East,92,0.0,0.0,80,0.00,CLR,FEW,0.00,0.0,WeatherDisplay:10.37,2013-02-10 11:50:00,
2013-02-10 03:52:00,35.5,29.9,30.02,East,92,0.0,0.0,80,0.00,CLR,FEW,0.00,0.0,WeatherDisplay:10.37,2013-02-10 11:52:00,
2013-02-10 03:53:00,35.5,29.9,30.02,East,92,0.0,0.0,80,0.00,CLR,FEW,0.00,0.0,WeatherDisplay:10.37,2013-02-10 11:53:00,
2013-02-10 03:55:00,35.5,29.9,30.02,East,92,0.0,0.0,80,0.00,CLR,FEW,0.00,0.0,WeatherDisplay:10.37,2013-02-10 11:55:00,
2013-02-10 03:58:00,35.5,29.9,30.02,East,92,0.0,0.0,80,0.00,CLR,FEW,0.00,0.0,WeatherDisplay:10.37,2013-02-10 11:58:00,
2013-02-10 03:59:00,35.3,29.7,30.02,East,92,0.0,0.0,80,0.00,CLR,FEW,0.00,0.0,WeatherDisplay:10.37,2013-02-10 11:59:00,
2013-02-10 04:00:00,35.3,29.7,30.02,East,92,0.0,0.0,80,0.00,CLR,FEW,0.00,0.0,WeatherDisplay:10.37,2013-02-10 12:00:00,
2013-02-10 04:02:00,35.5,29.9,30.02,East,92,0.0,0.0,80,0.00,CLR,FEW,0.00,0.0,WeatherDisplay:10.37,2013-02-10 12:02:00,
2013-02-10 04:04:00,35.5,29.9,30.02,East,92,0.0,0.0,80,0.00,CLR,FEW,0.00,0.0,WeatherDisplay:10.37,2013-02-10 12:04:00,
2013-02-10 04:05:00,35.5,29.9,30.02,East,92,0.0,0.0,80,0.00,CLR,FEW,0.00,0.0,WeatherDisplay:10.37,2013-02-10 12:05:00,
2013-02-10 04:08:00,35.6,30.0,30.02,ENE,71,0.2,0.0,80,0.00,CLR,FEW,0.00,0.0,WeatherDisplay:10.37,2013-02-10 12:08:00,
2013-02-10 04:10:00,35.6,29.7,30.02,ENE,74,0.0,1.1,79,0.00,CLR,FEW,0.00,0.0,WeatherDisplay:10.37,2013-02-10 12:10:00,
2013-02-10 04:11:00,35.8,29.9,30.02,ENE,75,0.0,0.0,79,0.00,CLR,FEW,0.00,0.0,WeatherDisplay:10.37,2013-02-10 12:11:00,
2013-02-10 04:14:00,35.9,30.0,30.02,East,83,0.0,1.1,79,0.00,CLR,FEW,0.00,0.0,WeatherDisplay:10.37,2013-02-10 12:14:00,
2013-02-10 04:15:00,36.0,29.8,30.01,ENE,71,0.0,0.0,78,0.00,CLR,FEW,0.00,0.0,WeatherDisplay:10.37,2013-02-10 12:15:00,
2013-02-10 04:19:00,36.3,30.1,30.01,East,97,2.5,0.0,78,0.00,CLR,FEW,0.00,0.0,WeatherDisplay:10.37,2013-02-10 12:19:00,
2013-02-10 04:20:00,36.3,29.8,30.01,ESE,111,0.0,0.0,77,0.00,CLR,FEW,0.00,0.0,WeatherDisplay:10.37,2013-02-10 12:20:00,
2013-02-10 04:21:00,36.3,29.8,30.01,ESE,105,1.2,3.5,77,0.00,CLR,FEW,0.00,0.0,WeatherDisplay:10.37,2013-02-10 12:21:00,
2013-02-10 04:24:00,36.5,29.7,30.01,ENE,70,0.0,0.0,76,0.00,CLR,FEW,0.00,0.0,WeatherDisplay:10.37,2013-02-10 12:24:00,
2013-02-10 04:25:00,36.4,29.5,30.01,East,94,0.0,0.0,76,0.00,CLR,FEW,0.00,0.0,WeatherDisplay:10.37,2013-02-10 12:25:00,
2013-02-10 04:28:00,36.3,29.1,30.01,NE,43,0.0,0.0,75,0.00,CLR,FEW,0.00,0.0,WeatherDisplay:10.37,2013-02-10 12:28:00,
2013-02-10 04:29:00,36.2,29.0,30.01,NE,49,0.0,0.0,75,0.00,CLR,FEW,0.00,0.0,WeatherDisplay:10.37,2013-02-10 12:29:00,
2013-02-10 04:30:00,36.2,29.0,30.01,ENE,60,0.0,0.0,75,0.00,CLR,FEW,0.00,0.0,WeatherDisplay:10.37,2013-02-10 12:30:00,
2013-02-10 04:32:00,36.0,28.8,30.01,ENE,59,0.0,0.0,75,0.00,CLR,FEW,0.00,0.0,WeatherDisplay:10.37,2013-02-10 12:32:00,
2013-02-10 04:34:00,36.0,28.8,30.01,ENE,57,0.1,2.3,75,0.00,CLR,FEW,0.00,0.0,WeatherDisplay:10.37,2013-02-10 12:34:00,
2013-02-10 04:36:00,35.9,28.7,30.01,East,86,0.8,2.3,75,0.00,CLR,FEW,0.00,0.0,WeatherDisplay:10.37,2013-02-10 12:36:00,
2013-02-10 04:38:00,35.9,28.7,30.01,East,86,0.0,0.0,75,0.00,CLR,FEW,0.00,0.0,WeatherDisplay:10.37,2013-02-10 12:38:00,
2013-02-10 04:39:00,35.9,28.7,30.01,East,85,0.0,0.0,75,0.00,CLR,FEW,0.00,0.0,WeatherDisplay:10.37,2013-02-10 12:39:00,
2013-02-10 04:40:00,35.9,28.7,30.01,East,85,0.0,0.0,75,0.00,CLR,FEW,0.00,0.0,WeatherDisplay:10.37,2013-02-10 12:40:00,
2013-02-10 04:42:00,35.9,28.7,30.01,East,79,0.0,0.0,75,0.00,CLR,FEW,0.00,0.0,WeatherDisplay:10.37,2013-02-10 12:42:00,
2013-02-10 04:43:00,35.9,28.7,30.01,East,98,0.0,0.0,75,0.00,CLR,FEW,0.00,0.0,WeatherDisplay:10.37,2013-02-10 12:43:00,
2013-02-10 04:44:00,35.9,28.7,30.01,East,97,0.0,0.0,75,0.00,CLR,FEW,0.00,0.0,WeatherDisplay:10.37,2013-02-10 12:44:00,
2013-02-10 04:45:00,36.0,28.8,30.01,East,97,0.0,0.0,75,0.00,CLR,FEW,0.00,0.0,WeatherDisplay:10.37,2013-02-10 12:45:00,
2013-02-10 04:47:00,36.0,28.8,30.01,East,97,0.0,0.0,75,0.00,CLR,FEW,0.00,0.0,WeatherDisplay:10.37,2013-02-10 12:47:00,
2013-02-10 04:48:00,36.0,28.8,30.01,East,97,0.0,0.0,75,0.00,CLR,FEW,0.00,0.0,WeatherDisplay:10.37,2013-02-10 12:48:00,
2013-02-10 04:49:00,35.9,28.7,30.01,East,97,0.0,0.0,75,0.00,CLR,FEW,0.00,0.0,WeatherDisplay:10.37,2013-02-10 12:49:00,
2013-02-10 04:51:00,35.9,28.7,30.01,East,88,0.0,0.0,75,0.00,CLR,FEW,0.00,0.0,WeatherDisplay:10.37,2013-02-10 12:51:00,
2013-02-10 04:53:00,35.9,28.7,30.01,East,80,0.0,0.0,75,0.00,CLR,FEW,0.00,0.0,WeatherDisplay:10.37,2013-02-10 12:53:00,
2013-02-10 04:54:00,35.9,28.7,30.01,East,80,0.0,0.0,75,0.00,CLR,FEW,0.00,0.0,WeatherDisplay:10.37,2013-02-10 12:54:00,
2013-02-10 04:55:00,35.9,28.7,30.01,East,80,0.0,0.0,75,0.00,CLR,FEW,0.00,0.0,WeatherDisplay:10.37,2013-02-10 12:55:00,
2013-02-10 04:57:00,35.8,28.3,30.01,East,81,0.0,0.0,74,0.00,CLR,FEW,0.00,0.0,WeatherDisplay:10.37,2013-02-10 12:57:00,
2013-02-10 04:58:00,35.8,28.3,30.01,East,81,0.0,0.0,74,0.00,CLR,FEW,0.00,0.0,WeatherDisplay:10.37,2013-02-10 12:58:00,
2013-02-10 04:59:00,35.6,28.1,30.01,East,81,0.0,0.0,74,0.00,CLR,FEW,0.00,0.0,WeatherDisplay:10.37,2013-02-10 12:59:00,
2013-02-10 05:00:00,35.6,28.1,30.01,East,81,0.0,0.0,74,0.00,CLR,FEW,0.00,0.0,WeatherDisplay:10.37,2013-02-10 13:00:00,
2013-02-10 05:02:00,35.6,28.1,30.01,East,80,0.0,0.0,74,0.00,CLR,FEW,0.00,0.0,WeatherDisplay:10.37,2013-02-10 13:02:00,
2013-02-10 05:03:00,35.6,28.1,30.01,East,80,0.0,0.0,74,0.00,CLR,FEW,0.00,0.0,WeatherDisplay:10.37,2013-02-10 13:03:00,
2013-02-10 05:05:00,35.8,28.3,30.01,ENE,58,0.0,1.3,74,0.00,CLR,FEW,0.00,0.0,WeatherDisplay:10.37,2013-02-10 13:05:00,
2013-02-10 05:08:00,35.8,28.3,30.01,NE,51,0.0,0.0,74,0.00,CLR,FEW,0.00,0.0,WeatherDisplay:10.37,2013-02-10 13:08:00,
2013-02-10 05:11:00,35.6,28.1,30.01,East,82,0.0,0.0,74,0.00,CLR,FEW,0.00,0.0,WeatherDisplay:10.37,2013-02-10 13:11:00,
2013-02-10 05:12:00,35.8,28.3,30.01,East,82,0.0,0.0,74,0.00,CLR,FEW,0.00,0.0,WeatherDisplay:10.37,2013-02-10 13:12:00,
2013-02-10 05:14:00,35.8,28.3,30.01,ENE,61,0.0,0.0,74,0.00,CLR,FEW,0.00,0.0,WeatherDisplay:10.37,2013-02-10 13:14:00,
2013-02-10 05:16:00,35.6,28.1,30.01,ENE,61,0.0,0.0,74,0.00,CLR,FEW,0.00,0.0,WeatherDisplay:10.37,2013-02-10 13:16:00,
2013-02-10 05:18:00,35.6,28.1,30.01,ENE,61,0.0,0.0,74,0.00,CLR,FEW,0.00,0.0,WeatherDisplay:10.37,2013-02-10 13:18:00,
2013-02-10 05:19:00,35.6,28.1,30.01,ENE,61,0.0,0.0,74,0.00,CLR,FEW,0.00,0.0,WeatherDisplay:10.37,2013-02-10 13:19:00,
2013-02-10 05:21:00,35.6,28.1,30.01,ENE,72,0.0,1.1,74,0.00,CLR,FEW,0.00,0.0,WeatherDisplay:10.37,2013-02-10 13:21:00,
2013-02-10 05:22:00,35.6,28.1,30.01,ENE,72,0.0,1.1,74,0.00,CLR,FEW,0.00,0.0,WeatherDisplay:10.37,2013-02-10 13:22:00,
2013-02-10 05:24:00,35.6,28.1,30.01,East,84,0.0,0.0,74,0.00,CLR,FEW,0.00,0.0,WeatherDisplay:10.37,2013-02-10 13:24:00,
2013-02-10 05:27:00,35.5,28.0,30.01,East,84,0.0,0.0,74,0.00,CLR,FEW,0.00,0.0,WeatherDisplay:10.37,2013-02-10 13:27:00,
2013-02-10 05:29:00,35.3,27.8,30.01,East,84,0.0,0.0,74,0.00,CLR,FEW,0.00,0.0,WeatherDisplay:10.37,2013-02-10 13:29:00,
2013-02-10 05:30:00,35.3,27.8,30.01,East,84,0.0,0.0,74,0.00,CLR,FEW,0.00,0.0,WeatherDisplay:10.37,2013-02-10 13:30:00,
2013-02-10 05:32:00,35.3,27.8,30.01,NNE,30,0.0,0.0,74,0.00,CLR,FEW,0.00,0.0,WeatherDisplay:10.37,2013-02-10 13:32:00,
2013-02-10 05:34:00,35.3,27.8,30.01,NE,47,0.0,0.0,74,0.00,CLR,FEW,0.00,0.0,WeatherDisplay:10.37,2013-02-10 13:34:00,
2013-02-10 05:35:00,35.3,27.8,30.01,NE,48,0.0,0.0,74,0.00,CLR,FEW,0.00,0.0,WeatherDisplay:10.37,2013-02-10 13:35:00,
2013-02-10 05:37:00,35.3,27.8,30.01,NNE,28,0.0,0.0,74,0.00,CLR,FEW,0.00,0.0,WeatherDisplay:10.37,2013-02-10 13:37:00,
2013-02-10 05:40:00,35.3,27.8,30.01,NE,49,0.3,2.6,74,0.00,CLR,FEW,0.00,0.0,WeatherDisplay:10.37,2013-02-10 13:40:00,
2013-02-10 05:41:00,35.3,27.8,30.01,ENE,71,1.1,2.3,74,0.00,CLR,FEW,0.00,0.0,WeatherDisplay:10.37,2013-02-10 13:41:00,
2013-02-10 05:42:00,35.5,28.0,30.01,East,85,0.0,0.0,74,0.00,CLR,FEW,0.00,0.0,WeatherDisplay:10.37,2013-02-10 13:42:00,
2013-02-10 05:45:00,35.6,28.1,30.01,ENE,65,0.0,0.0,74,0.00,CLR,FEW,0.00,0.0,WeatherDisplay:10.37,2013-02-10 13:45:00,
2013-02-10 05:46:00,35.6,27.8,30.01,ENE,66,0.1,1.3,73,0.00,CLR,FEW,0.00,0.0,WeatherDisplay:10.37,2013-02-10 13:46:00,
2013-02-10 05:47:00,35.6,27.8,30.01,ENE,65,0.1,1.1,73,0.00,CLR,FEW,0.00,0.0,WeatherDisplay:10.37,2013-02-10 13:47:00,
2013-02-10 05:48:00,35.6,27.8,30.01,ENE,66,0.2,2.3,73,0.00,CLR,FEW,0.00,0.0,WeatherDisplay:10.37,2013-02-10 13:48:00,
2013-02-10 05:50:00,35.8,28.0,30.01,NNE,30,0.2,6.9,73,0.00,CLR,FEW,0.00,0.0,WeatherDisplay:10.37,2013-02-10 13:50:00,
2013-02-10 05:51:00,35.8,28.0,30.01,NE,55,0.1,0.0,73,0.00,CLR,FEW,0.00,0.0,WeatherDisplay:10.37,2013-02-10 13:51:00,
2013-02-10 05:52:00,35.9,28.1,30.01,East,84,0.0,1.1,73,0.00,CLR,FEW,0.00,0.0,WeatherDisplay:10.37,2013-02-10 13:52:00,
2013-02-10 05:53:00,35.9,27.7,30.01,ENE,59,0.0,0.0,72,0.00,CLR,FEW,0.00,0.0,WeatherDisplay:10.37,2013-02-10 13:53:00,
2013-02-10 05:55:00,35.9,27.7,30.01,ENE,59,0.0,0.0,72,0.00,CLR,FEW,0.00,0.0,WeatherDisplay:10.37,2013-02-10 13:55:00,
2013-02-10 05:57:00,36.0,27.8,30.01,NE,49,0.0,2.3,72,0.00,CLR,FEW,0.00,0.0,WeatherDisplay:10.37,2013-02-10 13:57:00,
2013-02-10 05:59:00,36.0,27.8,30.01,East,97,1.2,2.3,72,0.00,CLR,FEW,0.00,0.0,WeatherDisplay:10.37,2013-02-10 13:59:00,
2013-02-10 06:00:00,36.0,27.8,30.01,East,97,0.1,2.3,72,0.00,CLR,FEW,0.00,0.0,WeatherDisplay:10.37,2013-02-10 14:00:00,
2013-02-10 06:03:00,35.9,27.7,30.01,East,96,0.0,1.3,72,0.00,CLR,FEW,0.00,0.0,WeatherDisplay:10.37,2013-02-10 14:03:00,
2013-02-10 06:04:00,35.9,27.7,30.01,East,79,0.1,1.1,72,0.00,CLR,FEW,0.00,0.0,WeatherDisplay:10.37,2013-02-10 14:04:00,
2013-02-10 06:05:00,35.9,27.7,30.01,East,89,0.0,0.0,72,0.00,CLR,FEW,0.00,0.0,WeatherDisplay:10.37,2013-02-10 14:05:00,
2013-02-10 06:06:00,35.8,27.7,30.01,East,80,0.0,0.0,72,0.00,OVC,FEW,0.00,0.0,WeatherDisplay:10.37,2013-02-10 14:06:00,
2013-02-10 06:09:00,35.5,27.4,30.01,East,80,0.0,0.0,72,0.00,OVC,FEW,0.00,0.0,WeatherDisplay:10.37,2013-02-10 14:09:00,
2013-02-10 06:10:00,35.5,27.4,30.01,ENE,67,0.3,2.3,72,0.00,OVC,FEW,0.00,0.0,WeatherDisplay:10.37,2013-02-10 14:10:00,
2013-02-10 06:11:00,35.5,27.4,30.01,ENE,67,0.0,0.0,72,0.00,OVC,FEW,0.00,0.0,WeatherDisplay:10.37,2013-02-10 14:11:00,
2013-02-10 06:12:00,35.6,27.8,30.01,ENE,67,0.1,2.6,73,0.00,OVC,FEW,0.00,0.0,WeatherDisplay:10.37,2013-02-10 14:12:00,
2013-02-10 06:14:00,35.8,27.7,30.01,ENE,64,0.0,0.0,72,0.00,OVC,FEW,0.00,0.0,WeatherDisplay:10.37,2013-02-10 14:14:00,
2013-02-10 06:15:00,35.8,27.7,30.01,ENE,63,0.0,0.0,72,0.00,OVC,FEW,0.00,0.0,WeatherDisplay:10.37,2013-02-10 14:15:00,
2013-02-10 06:16:00,35.8,27.7,30.01,ENE,64,0.0,0.0,72,0.00,OVC,FEW,0.00,0.0,WeatherDisplay:10.37,2013-02-10 14:16:00,
2013-02-10 06:18:00,35.6,27.5,30.01,ENE,64,0.0,0.0,72,0.00,OVC,FEW,0.00,0.0,WeatherDisplay:10.37,2013-02-10 14:18:00,
2013-02-10 06:20:00,35.6,27.5,30.01,ENE,64,0.2,1.1,72,0.00,OVC,FEW,0.00,0.0,WeatherDisplay:10.37,2013-02-10 14:20:00,
2013-02-10 06:21:00,35.5,27.4,30.01,ENE,64,0.0,0.0,72,0.00,OVC,FEW,0.00,0.0,WeatherDisplay:10.37,2013-02-10 14:21:00,
2013-02-10 06:22:00,35.5,27.4,30.01,ENE,64,0.0,0.0,72,0.00,OVC,FEW,0.00,0.0,WeatherDisplay:10.37,2013-02-10 14:22:00,
2013-02-10 06:24:00,35.5,27.4,30.01,ENE,64,0.0,1.1,72,0.00,OVC,FEW,0.00,0.0,WeatherDisplay:10.37,2013-02-10 14:24:00,
2013-02-10 06:25:00,35.5,27.4,30.01,ENE,73,0.0,0.0,72,0.00,OVC,FEW,0.00,0.0,WeatherDisplay:10.37,2013-02-10 14:25:00,
2013-02-10 06:26:00,35.5,27.4,30.01,ENE,67,0.0,0.0,72,0.00,OVC,FEW,0.00,0.0,WeatherDisplay:10.37,2013-02-10 14:26:00,
2013-02-10 06:27:00,35.5,27.4,30.01,ENE,63,0.0,0.0,72,0.00,OVC,FEW,0.00,0.0,WeatherDisplay:10.37,2013-02-10 14:27:00,
2013-02-10 06:29:00,35.3,27.2,30.01,ENE,59,0.0,0.0,72,0.00,OVC,FEW,0.00,0.0,WeatherDisplay:10.37,2013-02-10 14:29:00,
2013-02-10 06:31:00,35.3,27.2,30.01,East,81,0.0,0.0,72,0.00,OVC,FEW,0.00,0.0,WeatherDisplay:10.37,2013-02-10 14:31:00,
2013-02-10 06:32:00,35.3,27.2,30.01,ENE,63,0.0,0.0,72,0.00,OVC,FEW,0.00,0.0,WeatherDisplay:10.37,2013-02-10 14:32:00,
2013-02-10 06:34:00,35.3,27.2,30.01,ENE,61,0.0,0.0,72,0.00,OVC,FEW,0.00,0.0,WeatherDisplay:10.37,2013-02-10 14:34:00,
2013-02-10 06:37:00,35.3,27.2,30.01,ENE,61,0.0,0.0,72,0.00,OVC,FEW,0.00,0.0,WeatherDisplay:10.37,2013-02-10 14:37:00,
2013-02-10 06:39:00,35.3,27.2,30.01,ENE,62,0.0,0.0,72,0.00,OVC,FEW,0.00,5.3,WeatherDisplay:10.37,2013-02-10 14:39:00,
2013-02-10 06:42:00,35.3,27.2,30.01,ENE,62,0.0,0.0,72,0.00,OVC,FEW,0.00,7.4,WeatherDisplay:10.37,2013-02-10 14:42:00,
2013-02-10 06:43:00,35.3,27.2,30.01,ENE,62,0.0,0.0,72,0.00,OVC,FEW,0.00,7.4,WeatherDisplay:10.37,2013-02-10 14:43:00,
2013-02-10 06:45:00,35.2,27.1,30.01,ENE,62,0.0,0.0,72,0.00,CLR,FEW,0.00,9.5,WeatherDisplay:10.37,2013-02-10 14:45:00,
2013-02-10 06:47:00,35.2,27.1,30.01,East,82,0.0,0.0,72,0.00,CLR,FEW,0.00,9.5,WeatherDisplay:10.37,2013-02-10 14:47:00,
2013-02-10 06:48:00,35.2,27.1,30.01,ENE,67,0.0,0.0,72,0.00,CLR,FEW,0.00,11.6,WeatherDisplay:10.37,2013-02-10 14:48:00,
2013-02-10 06:50:00,35.0,26.9,30.01,ENE,63,0.0,0.0,72,0.00,CLR,FEW,0.00,12.6,WeatherDisplay:10.37,2013-02-10 14:50:00,
2013-02-10 06:52:00,35.0,26.9,30.01,ENE,58,0.0,0.0,72,0.00,SCT,FEW,0.00,14.7,WeatherDisplay:10.37,2013-02-10 14:52:00,
2013-02-10 06:53:00,35.0,26.9,30.01,ENE,57,0.0,0.0,72,0.00,FEW,,0.00,14.7,WeatherDisplay:10.37,2013-02-10 14:53:00,
2013-02-10 06:54:00,35.0,26.9,30.01,NE,55,0.1,1.1,72,0.00,SCT,FEW,0.00,14.7,WeatherDisplay:10.37,2013-02-10 14:54:00,
2013-02-10 06:56:00,35.0,26.9,30.01,NNE,31,0.0,0.0,72,0.00,SCT,FEW,0.00,16.8,WeatherDisplay:10.37,2013-02-10 14:56:00,
2013-02-10 06:57:00,35.0,27.2,30.01,NE,46,0.0,0.0,73,0.00,SCT,FEW,0.00,18.9,WeatherDisplay:10.37,2013-02-10 14:57:00,
2013-02-10 06:59:00,35.0,27.2,30.01,ENE,76,0.0,0.0,73,0.00,SCT,FEW,0.00,20.0,WeatherDisplay:10.37,2013-02-10 14:59:00,
2013-02-10 07:01:00,35.0,27.2,30.01,NE,54,0.0,0.0,73,0.00,SCT,FEW,0.00,22.1,WeatherDisplay:10.37,2013-02-10 15:01:00,
2013-02-10 07:03:00,34.9,27.1,30.01,NNE,30,0.0,0.0,73,0.00,SCT,FEW,0.00,24.2,WeatherDisplay:10.37,2013-02-10 15:03:00,
2013-02-10 07:04:00,34.9,27.1,30.01,NNE,30,0.0,0.0,73,0.00,SCT,FEW,0.00,24.2,WeatherDisplay:10.37,2013-02-10 15:04:00,
2013-02-10 07:06:00,35.0,27.2,30.01,ENE,67,0.0,0.0,73,0.00,BKN,FEW,0.00,26.3,WeatherDisplay:10.37,2013-02-10 15:06:00,
2013-02-10 07:08:00,35.0,27.2,30.01,ENE,66,0.0,0.0,73,0.00,BKN,FEW,0.00,27.3,WeatherDisplay:10.37,2013-02-10 15:08:00,
2013-02-10 07:09:00,35.0,27.2,30.01,NE,53,0.0,0.0,73,0.00,BKN,FEW,0.00,27.3,WeatherDisplay:10.37,2013-02-10 15:09:00,
2013-02-10 07:10:00,35.2,27.4,30.01,NE,53,0.0,0.0,73,0.00,SCT,FEW,0.00,44.1,WeatherDisplay:10.37,2013-02-10 15:10:00,
2013-02-10 07:11:00,35.3,27.5,30.01,NE,53,0.0,0.0,73,0.00,SCT,FEW,0.00,44.1,WeatherDisplay:10.37,2013-02-10 15:11:00,
2013-02-10 07:14:00,35.8,28.0,30.01,NE,55,0.0,0.0,73,0.00,CLR,FEW,0.00,70.4,WeatherDisplay:10.37,2013-02-10 15:14:00,
2013-02-10 07:15:00,35.9,27.7,30.02,NE,55,0.0,0.0,72,0.00,CLR,FEW,0.00,73.5,WeatherDisplay:10.37,2013-02-10 15:15:00,
2013-02-10 07:16:00,36.0,27.8,30.02,NE,55,0.0,0.0,72,0.00,CLR,FEW,0.00,79.8,WeatherDisplay:10.37,2013-02-10 15:16:00,
2013-02-10 07:19:00,36.3,27.8,30.02,ENE,78,0.3,3.9,71,0.00,CLR,FEW,0.00,87.2,WeatherDisplay:10.37,2013-02-10 15:19:00,
2013-02-10 07:21:00,36.6,28.1,30.02,NE,49,0.0,0.0,71,0.00,CLR,FEW,0.00,95.6,WeatherDisplay:10.37,2013-02-10 15:21:00,
2013-02-10 07:22:00,36.6,28.1,30.02,NE,49,0.0,0.0,71,0.00,CLR,FEW,0.00,97.7,WeatherDisplay:10.37,2013-02-10 15:22:00,
2013-02-10 07:24:00,36.8,28.3,30.02,NE,46,0.0,0.0,71,0.00,CLR,FEW,0.00,99.8,WeatherDisplay:10.37,2013-02-10 15:24:00,
2013-02-10 07:25:00,36.9,28.4,30.02,NE,46,0.0,0.0,71,0.00,CLR,FEW,0.00,105.0,WeatherDisplay:10.37,2013-02-10 15:25:00,
2013-02-10 07:27:00,37.0,28.5,30.02,NE,46,0.0,0.0,71,0.00,CLR,FEW,0.00,105.0,WeatherDisplay:10.37,2013-02-10 15:27:00,
2013-02-10 07:30:00,37.2,28.3,30.02,East,82,0.0,0.0,70,0.00,CLR,FEW,0.00,119.7,WeatherDisplay:10.37,2013-02-10 15:30:00,
2013-02-10 07:31:00,37.2,28.3,30.02,East,82,0.0,0.0,70,0.00,CLR,FEW,0.00,129.2,WeatherDisplay:10.37,2013-02-10 15:31:00,
2013-02-10 07:32:00,37.3,28.4,30.02,ENE,73,0.0,0.0,70,0.00,CLR,FEW,0.00,134.4,WeatherDisplay:10.37,2013-02-10 15:32:00,
2013-02-10 07:35:00,37.6,28.3,30.02,ENE,72,0.0,0.0,69,0.00,CLR,FEW,0.00,146.0,WeatherDisplay:10.37,2013-02-10 15:35:00,
2013-02-10 07:36:00,37.6,28.3,30.02,ENE,72,0.0,0.0,69,0.00,CLR,FEW,0.00,146.0,WeatherDisplay:10.37,2013-02-10 15:36:00,
2013-02-10 07:37:00,37.9,28.6,30.02,ENE,57,0.0,0.0,69,0.00,CLR,FEW,0.00,158.6,WeatherDisplay:10.37,2013-02-10 15:37:00,
2013-02-10 07:38:00,37.9,28.6,30.02,ENE,57,0.0,0.0,69,0.00,CLR,FEW,0.00,162.8,WeatherDisplay:10.37,2013-02-10 15:38:00,
2013-02-10 07:41:00,38.2,28.9,30.02,ENE,59,0.0,0.0,69,0.00,CLR,FEW,0.00,173.3,WeatherDisplay:10.37,2013-02-10 15:41:00,
2013-02-10 07:42:00,38.3,28.7,30.02,ENE,59,0.0,0.0,68,0.00,CLR,FEW,0.00,179.6,WeatherDisplay:10.37,2013-02-10 15:42:00,
2013-02-10 07:45:00,38.5,28.9,30.02,ENE,60,0.0,0.0,68,0.00,CLR,FEW,0.00,202.7,WeatherDisplay:10.37,2013-02-10 15:45:00,
2013-02-10 07:47:00,38.9,29.2,30.03,NNE,33,0.0,0.0,68,0.00,CLR,FEW,0.00,247.8,WeatherDisplay:10.37,2013-02-10 15:47:00,
2013-02-10 07:50:00,39.2,29.5,30.03,NE,55,0.0,0.0,68,0.00,CLR,FEW,0.00,267.8,WeatherDisplay:10.37,2013-02-10 15:50:00,
2013-02-10 07:52:00,39.5,29.4,30.03,NE,52,0.1,1.1,67,0.00,CLR,FEW,0.00,260.4,WeatherDisplay:10.37,2013-02-10 15:52:00,
2013-02-10 07:53:00,39.6,29.5,30.03,NE,52,0.0,0.0,67,0.00,CLR,FEW,0.00,146.0,WeatherDisplay:10.37,2013-02-10 15:53:00,
2013-02-10 07:54:00,39.6,29.5,30.03,NE,52,0.0,0.0,67,0.00,CLR,FEW,0.00,116.6,WeatherDisplay:10.37,2013-02-10 15:54:00,
2013-02-10 07:55:00,39.8,29.4,30.03,NE,52,0.0,0.0,66,0.00,CLR,FEW,0.00,112.4,WeatherDisplay:10.37,2013-02-10 15:55:00,
2013-02-10 07:58:00,39.8,29.4,30.03,NE,52,0.0,0.0,66,0.00,FEW,,0.00,116.6,WeatherDisplay:10.37,2013-02-10 15:58:00,
2013-02-10 07:59:00,39.8,29.4,30.03,NNE,31,0.0,0.0,66,0.00,SCT,FEW,0.00,155.4,WeatherDisplay:10.37,2013-02-10 15:59:00,
2013-02-10 08:00:00,39.8,29.4,30.03,NNE,30,0.0,0.0,66,0.00,SCT,FEW,0.00,121.8,WeatherDisplay:10.37,2013-02-10 16:00:00,
2013-02-10 08:04:00,39.8,29.7,30.03,NNE,30,0.0,0.0,67,0.00,SCT,FEW,0.00,247.8,WeatherDisplay:10.37,2013-02-10 16:04:00,
2013-02-10 08:05:00,39.8,29.7,30.03,NNE,30,0.0,0.0,67,0.00,SCT,FEW,0.00,247.8,WeatherDisplay:10.37,2013-02-10 16:05:00,
2013-02-10 08:09:00,40.2,30.1,30.03,NNE,30,0.0,0.0,67,0.00,CLR,FEW,0.00,333.9,WeatherDisplay:10.37,2013-02-10 16:09:00,
2013-02-10 08:10:00,40.2,30.1,30.03,NNE,30,0.0,0.0,67,0.00,CLR,FEW,0.00,333.9,WeatherDisplay:10.37,2013-02-10 16:10:00,
2013-02-10 08:15:00,41.2,30.3,30.03,NNE,31,0.0,0.0,65,0.00,CLR,FEW,0.00,421.1,WeatherDisplay:10.37,2013-02-10 16:15:00,
2013-02-10 08:16:00,41.5,31.0,30.03,NNE,31,0.0,0.0,66,0.00,CLR,FEW,0.00,407.4,WeatherDisplay:10.37,2013-02-10 16:16:00,
2013-02-10 08:17:00,41.8,31.3,30.03,NNE,31,0.0,0.0,66,0.00,CLR,FEW,0.00,407.4,WeatherDisplay:10.37,2013-02-10 16:17:00,
2013-02-10 08:20:00,42.2,30.1,30.03,NNE,32,0.0,0.0,62,0.00,CLR,FEW,0.00,194.3,WeatherDisplay:10.37,2013-02-10 16:20:00,
2013-02-10 08:21:00,42.2,29.7,30.03,NNE,32,0.0,0.0,61,0.00,CLR,FEW,0.00,182.7,WeatherDisplay:10.37,2013-02-10 16:21:00,
2013-02-10 08:22:00,42.2,29.7,30.03,NNE,32,0.0,0.0,61,0.00,CLR,FEW,0.00,182.7,WeatherDisplay:10.37,2013-02-10 16:22:00,
2013-02-10 08:25:00,42.2,29.7,30.03,ENE,65,0.0,0.0,61,0.00,FEW,,0.00,223.7,WeatherDisplay:10.37,2013-02-10 16:25:00,
2013-02-10 08:26:00,42.2,29.7,30.03,NNE,32,0.0,0.0,61,0.00,FEW,,0.00,248.9,WeatherDisplay:10.37,2013-02-10 16:26:00,
2013-02-10 08:27:00,42.2,29.7,30.03,NNE,32,0.0,0.0,61,0.00,FEW,,0.00,256.2,WeatherDisplay:10.37,2013-02-10 16:27:00,
2013-02-10 08:31:00,42.8,30.7,30.04,NNE,32,0.0,0.0,62,0.00,CLR,FEW,0.00,438.9,WeatherDisplay:10.37,2013-02-10 16:31:00,
2013-02-10 08:32:00,42.9,30.8,30.04,NNE,31,0.0,0.0,62,0.00,CLR,FEW,0.00,441.0,WeatherDisplay:10.37,2013-02-10 16:32:00,
2013-02-10 08:36:00,43.6,30.6,30.04,ENE,72,0.0,0.0,60,0.00,CLR,FEW,0.00,151.2,WeatherDisplay:10.37,2013-02-10 16:36:00,
2013-02-10 08:37:00,43.6,29.8,30.04,ENE,72,0.0,0.0,58,0.00,FEW,,0.00,146.0,WeatherDisplay:10.37,2013-02-10 16:37:00,
2013-02-10 08:41:00,43.6,29.8,30.04,ENE,71,0.0,0.0,58,0.00,BKN,FEW,0.00,140.7,WeatherDisplay:10.37,2013-02-10 16:41:00,
2013-02-10 08:42:00,43.5,29.7,30.04,ENE,71,0.0,0.0,58,0.00,BKN,FEW,0.00,141.8,WeatherDisplay:10.37,2013-02-10 16:42:00,
2013-02-10 08:46:00,43.2,29.4,30.04,ENE,71,0.0,0.0,58,0.00,BKN,FEW,0.00,148.1,WeatherDisplay:10.37,2013-02-10 16:46:00,
2013-02-10 08:47:00,43.1,29.3,30.04,ENE,71,0.0,0.0,58,0.00,BKN,FEW,0.00,146.0,WeatherDisplay:10.37,2013-02-10 16:47:00,
2013-02-10 08:49:00,43.1,29.3,30.04,ENE,71,0.0,0.0,58,0.00,BKN,FEW,0.00,136.5,WeatherDisplay:10.37,2013-02-10 16:49:00,
2013-02-10 08:51:00,42.9,29.5,30.04,ENE,71,0.0,0.0,59,0.00,BKN,FEW,0.00,114.5,WeatherDisplay:10.37,2013-02-10 16:51:00,
2013-02-10 08:52:00,42.9,29.1,30.04,ENE,71,0.0,0.0,58,0.00,BKN,FEW,0.00,107.1,WeatherDisplay:10.37,2013-02-10 16:52:00,
2013-02-10 08:53:00,42.9,29.1,30.04,ENE,71,0.0,0.0,58,0.00,BKN,FEW,0.00,102.9,WeatherDisplay:10.37,2013-02-10 16:53:00,
2013-02-10 08:54:00,42.9,29.1,30.04,ENE,71,0.0,0.0,58,0.00,BKN,FEW,0.00,99.8,WeatherDisplay:10.37,2013-02-10 16:54:00,
2013-02-10 08:56:00,42.9,29.5,30.04,ENE,71,0.0,0.0,59,0.00,BKN,FEW,0.00,99.8,WeatherDisplay:10.37,2013-02-10 16:56:00,
2013-02-10 08:57:00,42.9,29.5,30.04,ENE,71,0.0,0.0,59,0.00,BKN,FEW,0.00,99.8,WeatherDisplay:10.37,2013-02-10 16:57:00,
2013-02-10 08:58:00,42.9,29.5,30.04,ENE,71,0.0,0.0,59,0.00,BKN,FEW,0.00,99.8,WeatherDisplay:10.37,2013-02-10 16:58:00,
2013-02-10 08:59:00,42.9,29.5,30.04,ENE,71,0.0,0.0,59,0.00,BKN,FEW,0.00,97.7,WeatherDisplay:10.37,2013-02-10 16:59:00,
2013-02-10 09:01:00,42.9,30.0,30.04,ENE,71,0.0,0.0,60,0.00,BKN,FEW,0.00,101.9,WeatherDisplay:10.37,2013-02-10 17:01:00,
2013-02-10 09:03:00,42.9,30.0,30.04,ENE,71,0.0,0.0,60,0.00,BKN,FEW,0.00,126.0,WeatherDisplay:10.37,2013-02-10 17:03:00,
2013-02-10 09:04:00,42.8,29.9,30.04,ENE,71,0.0,0.0,60,0.00,BKN,FEW,0.00,112.4,WeatherDisplay:10.37,2013-02-10 17:04:00,
2013-02-10 09:06:00,42.8,29.5,30.04,ENE,71,0.0,0.0,59,0.00,BKN,FEW,0.00,118.7,WeatherDisplay:10.37,2013-02-10 17:06:00,
2013-02-10 09:08:00,42.9,30.0,30.04,ENE,71,0.0,0.0,60,0.00,BKN,FEW,0.00,382.2,WeatherDisplay:10.37,2013-02-10 17:08:00,
2013-02-10 09:09:00,42.9,30.4,30.04,ENE,71,0.0,0.0,61,0.00,SCT,FEW,0.00,382.2,WeatherDisplay:10.37,2013-02-10 17:09:00,
2013-02-10 09:11:00,43.3,29.9,30.04,ENE,71,0.0,0.0,59,0.00,FEW,,0.00,453.6,WeatherDisplay:10.37,2013-02-10 17:11:00,
2013-02-10 09:13:00,43.6,30.6,30.04,ENE,71,0.0,0.0,60,0.00,CLR,FEW,0.00,455.7,WeatherDisplay:10.37,2013-02-10 17:13:00,
2013-02-10 09:14:00,43.8,31.2,30.04,ENE,71,0.0,0.0,61,0.00,CLR,FEW,0.00,461.0,WeatherDisplay:10.37,2013-02-10 17:14:00,
2013-02-10 09:15:00,43.9,31.3,30.04,ENE,71,0.0,0.0,61,0.00,CLR,FEW,0.00,453.6,WeatherDisplay:10.37,2013-02-10 17:15:00,
2013-02-10 09:18:00,44.9,31.8,30.04,ENE,71,0.0,0.0,60,0.00,CLR,FEW,0.00,472.5,WeatherDisplay:10.37,2013-02-10 17:18:00,
2013-02-10 09:19:00,45.1,31.6,30.04,ENE,71,0.0,0.0,59,0.00,CLR,FEW,0.00,474.6,WeatherDisplay:10.37,2013-02-10 17:19:00,
2013-02-10 09:20:00,45.2,30.9,30.04,ENE,71,0.0,0.0,57,0.00,CLR,FEW,0.00,479.9,WeatherDisplay:10.37,2013-02-10 17:20:00,
2013-02-10 09:23:00,45.5,32.0,30.04,ENE,71,0.0,0.0,59,0.00,CLR,FEW,0.00,489.3,WeatherDisplay:10.37,2013-02-10 17:23:00,
2013-02-10 09:25:00,46.0,32.5,30.04,ENE,72,0.0,0.0,59,0.00,CLR,FEW,0.00,494.6,WeatherDisplay:10.37,2013-02-10 17:25:00,
2013-02-10 09:28:00,46.5,31.6,30.04,NNW,329,0.0,0.0,56,0.00,CLR,FEW,0.00,511.4,WeatherDisplay:10.37,2013-02-10 17:28:00,
2013-02-10 09:29:00,46.5,31.6,30.04,NNW,329,0.0,0.0,56,0.00,CLR,FEW,0.00,461.0,WeatherDisplay:10.37,2013-02-10 17:29:00,
2013-02-10 09:30:00,46.4,32.0,30.04,East,98,0.1,1.1,57,0.00,CLR,FEW,0.00,518.7,WeatherDisplay:10.37,2013-02-10 17:30:00,
2013-02-10 09:33:00,46.2,30.9,30.04,East,98,1.7,6.5,55,0.00,CLR,FEW,0.00,514.5,WeatherDisplay:10.37,2013-02-10 17:33:00,
2013-02-10 09:34:00,46.0,30.7,30.04,East,98,3.5,6.9,55,0.00,CLR,FEW,0.00,514.5,WeatherDisplay:10.37,2013-02-10 17:34:00,
2013-02-10 09:35:00,45.7,30.4,30.04,SSW,195,0.1,0.0,55,0.00,CLR,FEW,0.00,433.7,WeatherDisplay:10.37,2013-02-10 17:35:00,
2013-02-10 09:36:00,45.5,30.3,30.04,SSW,195,0.1,1.1,55,0.00,CLR,FEW,0.00,433.7,WeatherDisplay:10.37,2013-02-10 17:36:00,
2013-02-10 09:38:00,45.1,30.3,30.04,SSW,195,0.0,0.0,56,0.00,CLR,FEW,0.00,564.9,WeatherDisplay:10.37,2013-02-10 17:38:00,
2013-02-10 09:40:00,45.2,31.3,30.04,SSW,193,0.5,2.3,58,0.00,CLR,FEW,0.00,567.0,WeatherDisplay:10.37,2013-02-10 17:40:00,
2013-02-10 09:42:00,45.8,31.9,30.04,SSW,193,0.0,0.0,58,0.00,CLR,FEW,0.00,589.1,WeatherDisplay:10.37,2013-02-10 17:42:00,
2013-02-10 09:43:00,45.8,31.0,30.04,SSW,193,0.0,0.0,56,0.00,CLR,FEW,0.00,599.6,WeatherDisplay:10.37,2013-02-10 17:43:00,
2013-02-10 09:45:00,45.7,30.4,30.04,SSW,193,0.0,1.1,55,0.00,CLR,FEW,0.00,605.9,WeatherDisplay:10.37,2013-02-10 17:45:00,
2013-02-10 09:47:00,45.2,30.0,30.04,SSW,196,0.0,0.0,55,0.00,CLR,FEW,0.00,170.1,WeatherDisplay:10.37,2013-02-10 17:47:00,
2013-02-10 09:49:00,44.9,30.6,30.04,SSW,196,3.1,3.9,57,0.00,FEW,,0.00,177.5,WeatherDisplay:10.37,2013-02-10 17:49:00,
2013-02-10 09:51:00,44.6,29.9,30.04,SSW,196,0.0,2.3,56,0.00,SCT,FEW,0.00,616.4,WeatherDisplay:10.37,2013-02-10 17:51:00,
2013-02-10 09:52:00,44.5,29.8,30.04,SSW,196,0.0,0.0,56,0.00,SCT,FEW,0.00,618.5,WeatherDisplay:10.37,2013-02-10 17:52:00,
2013-02-10 09:53:00,44.6,31.1,30.04,SSW,196,0.0,0.0,59,0.00,FEW,,0.00,621.6,WeatherDisplay:10.37,2013-02-10 17:53:00,
2013-02-10 09:56:00,45.1,31.2,30.04,SSW,196,0.0,0.0,58,0.00,CLR,FEW,0.00,621.6,WeatherDisplay:10.37,2013-02-10 17:56:00,
2013-02-10 09:58:00,45.7,31.8,30.04,South,175,0.0,0.0,58,0.00,CLR,FEW,0.00,620.6,WeatherDisplay:10.37,2013-02-10 17:58:00,
2013-02-10 10:01:00,46.2,31.4,30.04,South,191,0.0,1.1,56,0.00,CLR,FEW,0.00,621.6,WeatherDisplay:10.37,2013-02-10 18:01:00,
2013-02-10 10:03:00,46.5,31.6,30.04,South,191,0.0,0.0,56,0.00,CLR,FEW,0.00,618.5,WeatherDisplay:10.37,2013-02-10 18:03:00,
2013-02-10 10:06:00,46.7,31.4,30.04,South,191,0.1,0.0,55,0.00,CLR,FEW,0.00,633.2,WeatherDisplay:10.37,2013-02-10 18:06:00,
2013-02-10 10:09:00,46.8,30.6,30.04,SSW,196,0.0,0.0,53,0.00,CLR,FEW,0.00,642.6,WeatherDisplay:10.37,2013-02-10 18:09:00,
2013-02-10 10:12:00,47.1,31.3,30.04,SSW,196,0.0,0.0,54,0.00,CLR,FEW,0.00,662.6,WeatherDisplay:10.37,2013-02-10 18:12:00,
2013-02-10 10:14:00,47.6,31.3,30.04,SSW,194,0.0,0.0,53,0.00,CLR,FEW,0.00,688.8,WeatherDisplay:10.37,2013-02-10 18:14:00,
2013-02-10 10:17:00,47.7,32.3,30.04,SSW,194,0.0,1.1,55,0.00,CLR,FEW,0.00,727.7,WeatherDisplay:10.37,2013-02-10 18:17:00,
2013-02-10 10:19:00,47.7,30.4,30.04,SSW,200,0.1,1.1,51,0.00,CLR,FEW,0.00,738.2,WeatherDisplay:10.37,2013-02-10 18:19:00,
2013-02-10 10:22:00,47.3,30.1,30.04,WSW,250,0.0,0.0,51,0.00,CLR,FEW,0.00,758.1,WeatherDisplay:10.37,2013-02-10 18:22:00,
2013-02-10 10:23:00,47.1,30.4,30.04,WSW,250,0.0,0.0,52,0.00,CLR,FEW,0.00,243.6,WeatherDisplay:10.37,2013-02-10 18:23:00,
2013-02-10 10:24:00,47.1,30.4,30.04,WSW,250,0.4,2.6,52,0.00,CLR,FEW,0.00,243.6,WeatherDisplay:10.37,2013-02-10 18:24:00,
2013-02-10 10:25:00,46.8,30.6,30.04,WSW,250,0.0,2.3,53,0.00,FEW,,0.00,247.8,WeatherDisplay:10.37,2013-02-10 18:25:00,
2013-02-10 10:27:00,46.4,30.2,30.04,WSW,250,0.0,0.0,53,0.00,SCT,FEW,0.00,248.9,WeatherDisplay:10.37,2013-02-10 18:27:00,
2013-02-10 10:28:00,46.2,30.0,30.04,WSW,250,0.0,0.0,53,0.00,BKN,FEW,0.00,240.5,WeatherDisplay:10.37,2013-02-10 18:28:00,
2013-02-10 10:30:00,46.1,29.9,30.04,WSW,250,0.0,0.0,53,0.00,BKN,FEW,0.00,221.6,WeatherDisplay:10.37,2013-02-10 18:30:00,
2013-02-10 10:32:00,45.7,30.4,30.04,WSW,250,0.0,0.0,55,0.00,BKN,FEW,0.00,180.6,WeatherDisplay:10.37,2013-02-10 18:32:00,
2013-02-10 10:33:00,45.7,30.4,30.04,WSW,250,0.8,2.6,55,0.00,BKN,FEW,0.00,180.6,WeatherDisplay:10.37,2013-02-10 18:33:00,
2013-02-10 10:36:00,45.4,30.2,30.04,WSW,250,0.0,1.1,55,0.00,BKN,FEW,0.00,170.1,WeatherDisplay:10.37,2013-02-10 18:36:00,
2013-02-10 10:37:00,45.4,30.6,30.04,WSW,250,0.0,0.0,56,0.00,BKN,FEW,0.00,170.1,WeatherDisplay:10.37,2013-02-10 18:37:00,
2013-02-10 10:39:00,45.1,30.3,30.04,WSW,248,4.5,6.9,56,0.00,BKN,FEW,0.00,160.7,WeatherDisplay:10.37,2013-02-10 18:39:00,
2013-02-10 10:41:00,44.8,29.6,30.04,WSW,248,0.0,6.9,55,0.00,BKN,FEW,0.00,171.2,WeatherDisplay:10.37,2013-02-10 18:41:00,
2013-02-10 10:43:00,44.8,30.0,30.04,WSW,248,0.0,0.0,56,0.00,BKN,FEW,0.00,188.0,WeatherDisplay:10.37,2013-02-10 18:43:00,
2013-02-10 10:46:00,44.8,30.9,30.04,WSW,248,0.0,0.0,58,0.00,BKN,FEW,0.00,240.5,WeatherDisplay:10.37,2013-02-10 18:46:00,
2013-02-10 10:47:00,44.9,30.6,30.04,WSW,248,0.0,0.0,57,0.00,BKN,FEW,0.00,284.6,WeatherDisplay:10.37,2013-02-10 18:47:00,
2013-02-10 10:48:00,44.9,31.0,30.04,WSW,248,0.0,0.0,58,0.00,BKN,FEW,0.00,284.6,WeatherDisplay:10.37,2013-02-10 18:48:00,
2013-02-10 10:52:00,45.2,30.4,30.04,WSW,248,0.0,0.0,56,0.00,BKN,FEW,0.00,317.1,WeatherDisplay:10.37,2013-02-10 18:52:00,
2013-02-10 10:53:00,45.5,31.1,30.04,WSW,248,0.0,0.0,57,0.00,BKN,FEW,0.00,317.1,WeatherDisplay:10.37,2013-02-10 18:53:00,
2013-02-10 10:57:00,46.4,31.5,30.04,WSW,248,0.0,0.0,56,0.00,SCT,FEW,0.00,852.6,WeatherDisplay:10.37,2013-02-10 18:57:00,
2013-02-10 10:58:00,46.7,31.8,30.04,WSW,248,0.0,0.0,56,0.00,FEW,,0.00,840.0,WeatherDisplay:10.37,2013-02-10 18:58:00,
2013-02-10 10:59:00,46.8,31.0,30.04,WSW,248,0.0,0.0,54,0.00,CLR,FEW,0.00,832.7,WeatherDisplay:10.37,2013-02-10 18:59:00,
2013-02-10 11:02:00,47.6,31.8,30.03,WSW,248,0.0,0.0,54,0.00,CLR,FEW,0.00,879.9,WeatherDisplay:10.37,2013-02-10 19:02:00,
2013-02-10 11:03:00,47.7,32.8,30.03,WSW,248,0.0,0.0,56,0.00,CLR,FEW,0.00,876.8,WeatherDisplay:10.37,2013-02-10 19:03:00,
2013-02-10 11:04:00,48.0,31.7,30.03,WSW,250,0.0,0.0,53,0.00,CLR,FEW,0.00,876.8,WeatherDisplay:10.37,2013-02-10 19:04:00,
2013-02-10 11:08:00,48.6,32.7,30.03,WSW,240,0.4,5.8,54,0.00,CLR,FEW,0.00,865.2,WeatherDisplay:10.37,2013-02-10 19:08:00,
2013-02-10 11:09:00,48.6,32.7,30.03,WSW,240,0.0,0.0,54,0.00,CLR,FEW,0.00,251.0,WeatherDisplay:10.37,2013-02-10 19:09:00,
2013-02-10 11:13:00,46.8,30.6,30.03,SSW,197,0.0,0.0,53,0.00,BKN,FEW,0.00,226.8,WeatherDisplay:10.37,2013-02-10 19:13:00,
2013-02-10 11:14:00,46.5,29.8,30.03,SSW,197,0.0,0.0,52,0.00,BKN,FEW,0.00,232.1,WeatherDisplay:10.37,2013-02-10 19:14:00,
2013-02-10 11:19:00,45.5,31.1,30.03,SSW,195,1.8,5.8,57,0.00,BKN,FEW,0.00,284.6,WeatherDisplay:10.37,2013-02-10 19:19:00,
2013-02-10 11:24:00,45.2,29.1,30.03,SSW,194,0.0,0.0,53,0.00,BKN,FEW,0.00,278.3,WeatherDisplay:10.37,2013-02-10 19:24:00,
2013-02-10 11:25:00,45.2,29.5,30.03,SSW,194,0.0,0.0,54,0.00,BKN,FEW,0.00,275.1,WeatherDisplay:10.37,2013-02-10 19:25:00,
2013-02-10 11:26:00,45.2,29.5,30.03,SSW,194,0.0,0.0,54,0.00,BKN,FEW,0.00,275.1,WeatherDisplay:10.37,2013-02-10 19:26:00,
2013-02-10 11:29:00,45.4,29.7,30.03,SSW,195,1.2,7.8,54,0.00,BKN,FEW,0.00,273.0,WeatherDisplay:10.37,2013-02-10 19:29:00,
2013-02-10 11:30:00,45.4,29.7,30.03,SSW,194,0.0,0.0,54,0.00,BKN,FEW,0.00,273.0,WeatherDisplay:10.37,2013-02-10 19:30:00,
2013-02-10 11:31:00,45.4,29.7,30.03,SSW,195,0.1,8.1,54,0.00,BKN,FEW,0.00,262.5,WeatherDisplay:10.37,2013-02-10 19:31:00,
2013-02-10 11:35:00,45.4,29.7,30.03,SSW,195,0.0,0.0,54,0.00,BKN,FEW,0.00,262.5,WeatherDisplay:10.37,2013-02-10 19:35:00,
2013-02-10 11:36:00,45.4,29.3,30.03,SSW,195,0.0,0.0,53,0.00,BKN,FEW,0.00,269.9,WeatherDisplay:10.37,2013-02-10 19:36:00,
2013-02-10 11:40:00,45.4,29.7,30.03,SSW,193,0.1,1.1,54,0.00,BKN,FEW,0.00,282.5,WeatherDisplay:10.37,2013-02-10 19:40:00,
2013-02-10 11:41:00,45.4,29.3,30.03,SSW,194,0.0,0.0,53,0.00,BKN,FEW,0.00,287.7,WeatherDisplay:10.37,2013-02-10 19:41:00,
2013-02-10 11:45:00,45.5,29.8,30.02,SSW,200,0.7,0.0,54,0.00,BKN,FEW,0.00,284.6,WeatherDisplay:10.37,2013-02-10 19:45:00,
2013-02-10 11:46:00,45.5,29.8,30.02,SSW,199,0.7,2.3,54,0.00,BKN,FEW,0.00,284.6,WeatherDisplay:10.37,2013-02-10 19:46:00,
2013-02-10 11:50:00,45.5,30.3,30.02,SSW,198,0.0,0.0,55,0.00,BKN,FEW,0.00,258.3,WeatherDisplay:10.37,2013-02-10 19:50:00,
2013-02-10 11:52:00,45.5,29.8,30.02,WSW,246,6.1,8.1,54,0.00,BKN,FEW,0.00,258.3,WeatherDisplay:10.37,2013-02-10 19:52:00,
2013-02-10 11:56:00,45.5,30.7,30.02,WSW,246,0.0,0.0,56,0.00,BKN,FEW,0.00,231.0,WeatherDisplay:10.37,2013-02-10 19:56:00,
2013-02-10 11:57:00,45.7,30.4,30.02,WSW,245,0.0,0.0,55,0.00,BKN,FEW,0.00,232.1,WeatherDisplay:10.37,2013-02-10 19:57:00,
2013-02-10 11:58:00,45.8,31.0,30.02,WSW,242,0.0,0.0,56,0.00,BKN,FEW,0.00,240.5,WeatherDisplay:10.37,2013-02-10 19:58:00,
2013-02-10 12:01:00,45.8,30.5,30.02,WSW,242,0.0,0.0,55,0.00,BKN,FEW,0.00,232.1,WeatherDisplay:10.37,2013-02-10 20:01:00,
2013-02-10 12:02:00,45.7,29.5,30.02,WSW,242,0.0,0.0,53,0.00,BKN,FEW,0.00,226.8,WeatherDisplay:10.37,2013-02-10 20:02:00,
2013-02-10 12:03:00,45.7,29.5,30.02,WSW,242,0.0,0.0,53,0.00,BKN,FEW,0.00,224.7,WeatherDisplay:10.37,2013-02-10 20:03:00,
2013-02-10 12:06:00,45.7,30.0,30.02,WSW,242,0.0,0.0,54,0.00,BKN,FEW,0.00,221.6,WeatherDisplay:10.37,2013-02-10 20:06:00,
2013-02-10 12:07:00,45.7,29.5,30.02,WSW,242,0.0,0.0,53,0.00,BKN,FEW,0.00,223.7,WeatherDisplay:10.37,2013-02-10 20:07:00,
2013-02-10 12:10:00,45.5,28.4,30.02,WSW,242,0.0,0.0,51,0.00,BKN,FEW,0.00,231.0,WeatherDisplay:10.37,2013-02-10 20:10:00,
2013-02-10 12:11:00,45.5,28.4,30.02,WSW,242,0.0,0.0,51,0.00,BKN,FEW,0.00,232.1,WeatherDisplay:10.37,2013-02-10 20:11:00,
2013-02-10 12:14:00,45.7,29.1,30.02,WSW,242,0.0,5.8,52,0.00,BKN,FEW,0.00,232.1,WeatherDisplay:10.37,2013-02-10 20:14:00,
2013-02-10 12:15:00,45.7,29.1,30.01,WSW,242,0.0,5.8,52,0.00,BKN,FEW,0.00,232.1,WeatherDisplay:10.37,2013-02-10 20:15:00,
2013-02-10 12:16:00,45.7,29.1,30.01,WSW,242,0.0,0.0,52,0.00,BKN,FEW,0.00,231.0,WeatherDisplay:10.37,2013-02-10 20:16:00,
2013-02-10 12:19:00,46.0,30.3,30.01,WSW,242,0.0,0.0,54,0.00,BKN,FEW,0.00,240.5,WeatherDisplay:10.37,2013-02-10 20:19:00,
2013-02-10 12:20:00,46.0,30.7,30.01,WSW,242,0.0,0.0,55,0.00,BKN,FEW,0.00,241.5,WeatherDisplay:10.37,2013-02-10 20:20:00,
2013-02-10 12:21:00,46.1,30.8,30.01,WSW,242,0.0,0.0,55,0.00,BKN,FEW,0.00,240.5,WeatherDisplay:10.37,2013-02-10 20:21:00,
2013-02-10 12:22:00,46.1,30.8,30.01,WSW,242,0.0,0.0,55,0.00,BKN,FEW,0.00,240.5,WeatherDisplay:10.37,2013-02-10 20:22:00,
2013-02-10 12:25:00,46.1,30.4,30.01,WSW,242,0.0,0.0,54,0.00,BKN,FEW,0.00,240.5,WeatherDisplay:10.37,2013-02-10 20:25:00,
2013-02-10 12:26:00,46.1,30.4,30.01,WSW,242,0.0,0.0,54,0.00,BKN,FEW,0.00,240.5,WeatherDisplay:10.37,2013-02-10 20:26:00,
2013-02-10 12:28:00,46.1,29.9,30.01,WSW,242,0.0,0.0,53,0.00,BKN,FEW,0.00,238.4,WeatherDisplay:10.37,2013-02-10 20:28:00,
2013-02-10 12:30:00,46.1,29.4,30.01,WSW,242,0.0,0.0,52,0.00,BKN,FEW,0.00,241.5,WeatherDisplay:10.37,2013-02-10 20:30:00,
2013-02-10 12:31:00,46.1,29.4,30.01,WSW,242,0.0,0.0,52,0.00,BKN,FEW,0.00,241.5,WeatherDisplay:10.37,2013-02-10 20:31:00,
2013-02-10 12:35:00,46.1,29.0,30.01,WSW,242,0.0,0.0,51,0.00,BKN,FEW,0.00,238.4,WeatherDisplay:10.37,2013-02-10 20:35:00,
2013-02-10 12:36:00,46.2,29.1,30.01,WSW,242,0.0,0.0,51,0.00,BKN,FEW,0.00,232.1,WeatherDisplay:10.37,2013-02-10 20:36:00,
2013-02-10 12:37:00,46.2,29.1,30.01,WSW,242,0.0,0.0,51,0.00,BKN,FEW,0.00,232.1,WeatherDisplay:10.37,2013-02-10 20:37:00,
2013-02-10 12:40:00,46.4,29.7,30.01,WSW,242,0.0,0.0,52,0.00,BKN,FEW,0.00,231.0,WeatherDisplay:10.37,2013-02-10 20:40:00,
2013-02-10 12:41:00,46.4,29.2,30.01,WSW,242,0.0,0.0,51,0.00,BKN,FEW,0.00,228.9,WeatherDisplay:10.37,2013-02-10 20:41:00,
2013-02-10 12:42:00,46.4,29.2,30.01,WSW,242,0.0,0.0,51,0.00,BKN,FEW,0.00,226.8,WeatherDisplay:10.37,2013-02-10 20:42:00,
2013-02-10 12:44:00,46.4,29.7,30.01,WSW,242,0.0,0.0,52,0.00,BKN,FEW,0.00,226.8,WeatherDisplay:10.37,2013-02-10 20:44:00,
2013-02-10 12:45:00,46.4,30.2,30.00,WSW,242,0.0,0.0,53,0.00,BKN,FEW,0.00,226.8,WeatherDisplay:10.37,2013-02-10 20:45:00,
2013-02-10 12:46:00,46.5,30.3,30.00,WSW,242,0.0,0.0,53,0.00,BKN,FEW,0.00,228.9,WeatherDisplay:10.37,2013-02-10 20:46:00,
2013-02-10 12:47:00,46.5,29.3,30.00,WSW,242,0.0,0.0,51,0.00,BKN,FEW,0.00,228.9,WeatherDisplay:10.37,2013-02-10 20:47:00,
2013-02-10 12:49:00,46.5,29.8,30.00,WSW,242,0.0,0.0,52,0.00,BKN,FEW,0.00,226.8,WeatherDisplay:10.37,2013-02-10 20:49:00,
2013-02-10 12:50:00,46.5,29.8,30.00,WSW,242,0.0,0.0,52,0.00,BKN,FEW,0.00,223.7,WeatherDisplay:10.37,2013-02-10 20:50:00,
2013-02-10 12:52:00,46.4,29.2,30.00,WSW,242,0.0,0.0,51,0.00,BKN,FEW,0.00,210.0,WeatherDisplay:10.37,2013-02-10 20:52:00,
2013-02-10 12:55:00,46.2,30.0,30.00,WSW,242,0.0,0.0,53,0.00,BKN,FEW,0.00,204.8,WeatherDisplay:10.37,2013-02-10 20:55:00,
2013-02-10 12:57:00,46.2,29.5,30.00,WSW,242,0.0,0.0,52,0.00,BKN,FEW,0.00,201.6,WeatherDisplay:10.37,2013-02-10 20:57:00,
2013-02-10 12:58:00,46.2,29.5,30.00,WSW,242,0.0,0.0,52,0.00,BKN,FEW,0.00,199.5,WeatherDisplay:10.37,2013-02-10 20:58:00,
2013-02-10 13:00:00,46.2,30.0,30.00,WSW,242,0.0,0.0,53,0.00,BKN,FEW,0.00,197.4,WeatherDisplay:10.37,2013-02-10 21:00:00,
2013-02-10 13:01:00,46.2,29.5,30.00,WSW,242,0.0,0.0,52,0.00,BKN,FEW,0.00,195.3,WeatherDisplay:10.37,2013-02-10 21:01:00,
2013-02-10 13:02:00,46.4,29.7,30.00,WSW,242,0.0,0.0,52,0.00,BKN,FEW,0.00,195.3,WeatherDisplay:10.37,2013-02-10 21:02:00,
2013-02-10 13:04:00,46.2,29.5,30.00,WSW,242,0.0,0.0,52,0.00,BKN,FEW,0.00,199.5,WeatherDisplay:10.37,2013-02-10 21:04:00,
2013-02-10 13:05:00,46.2,29.1,30.00,WSW,242,0.0,0.0,51,0.00,BKN,FEW,0.00,204.8,WeatherDisplay:10.37,2013-02-10 21:05:00,
2013-02-10 13:07:00,46.2,30.5,30.00,WSW,242,0.1,1.1,54,0.00,BKN,FEW,0.00,206.9,WeatherDisplay:10.37,2013-02-10 21:07:00,
2013-02-10 13:09:00,46.0,29.3,30.00,WSW,242,0.0,0.0,52,0.00,BKN,FEW,0.00,209.0,WeatherDisplay:10.37,2013-02-10 21:09:00,
2013-02-10 13:10:00,46.0,29.3,30.00,WSW,242,0.0,0.0,52,0.00,BKN,FEW,0.00,210.0,WeatherDisplay:10.37,2013-02-10 21:10:00,
2013-02-10 13:12:00,45.8,29.2,30.00,WSW,242,0.0,0.0,52,0.00,BKN,FEW,0.00,206.9,WeatherDisplay:10.37,2013-02-10 21:12:00,
2013-02-10 13:14:00,45.8,29.6,30.00,WSW,242,0.0,0.0,53,0.00,BKN,FEW,0.00,199.5,WeatherDisplay:10.37,2013-02-10 21:14:00,
2013-02-10 13:16:00,46.0,30.3,29.99,WSW,242,0.0,0.0,54,0.00,BKN,FEW,0.00,195.3,WeatherDisplay:10.37,2013-02-10 21:16:00,
2013-02-10 13:17:00,46.0,30.3,29.99,WSW,242,0.0,0.0,54,0.00,BKN,FEW,0.00,197.4,WeatherDisplay:10.37,2013-02-10 21:17:00,
2013-02-10 13:19:00,46.1,30.4,29.99,WSW,242,0.0,0.0,54,0.00,BKN,FEW,0.00,199.5,WeatherDisplay:10.37,2013-02-10 21:19:00,
2013-02-10 13:22:00,46.1,29.9,29.99,WSW,242,0.0,0.0,53,0.00,BKN,FEW,0.00,201.6,WeatherDisplay:10.37,2013-02-10 21:22:00,
2013-02-10 13:25:00,46.1,29.9,29.99,WSW,242,0.0,0.0,53,0.00,BKN,FEW,0.00,206.9,WeatherDisplay:10.37,2013-02-10 21:25:00,
2013-02-10 13:27:00,46.2,30.0,29.99,WSW,242,0.0,0.0,53,0.00,BKN,FEW,0.00,221.6,WeatherDisplay:10.37,2013-02-10 21:27:00,
2013-02-10 13:30:00,46.2,30.5,29.99,WSW,242,0.0,0.0,54,0.00,BKN,FEW,0.00,238.4,WeatherDisplay:10.37,2013-02-10 21:30:00,
2013-02-10 13:32:00,46.2,30.0,29.99,WSW,242,0.0,0.0,53,0.00,BKN,FEW,0.00,241.5,WeatherDisplay:10.37,2013-02-10 21:32:00,
2013-02-10 13:33:00,46.2,30.0,29.99,WSW,242,0.0,0.0,53,0.00,BKN,FEW,0.00,245.7,WeatherDisplay:10.37,2013-02-10 21:33:00,
2013-02-10 13:35:00,46.2,29.1,29.99,WSW,242,0.0,0.0,51,0.00,BKN,FEW,0.00,238.4,WeatherDisplay:10.37,2013-02-10 21:35:00,
2013-02-10 13:38:00,46.2,29.5,29.99,WSW,242,0.0,0.0,52,0.00,BKN,FEW,0.00,260.4,WeatherDisplay:10.37,2013-02-10 21:38:00,
2013-02-10 13:39:00,46.2,30.0,29.99,WSW,242,0.0,0.0,53,0.00,BKN,FEW,0.00,263.6,WeatherDisplay:10.37,2013-02-10 21:39:00,
2013-02-10 13:40:00,46.4,29.2,29.99,WSW,242,0.0,0.0,51,0.00,BKN,FEW,0.00,267.8,WeatherDisplay:10.37,2013-02-10 21:40:00,
2013-02-10 13:44:00,46.2,29.1,29.99,WSW,242,0.0,0.0,51,0.00,BKN,FEW,0.00,265.7,WeatherDisplay:10.37,2013-02-10 21:44:00,
2013-02-10 13:45:00,46.1,29.4,29.99,WSW,242,0.0,0.0,52,0.00,BKN,FEW,0.00,265.7,WeatherDisplay:10.37,2013-02-10 21:45:00,
2013-02-10 13:46:00,46.1,29.0,29.99,WSW,242,0.0,0.0,51,0.00,BKN,FEW,0.00,258.3,WeatherDisplay:10.37,2013-02-10 21:46:00,
2013-02-10 13:49:00,46.2,29.5,29.99,WSW,242,0.0,0.0,52,0.00,BKN,FEW,0.00,263.6,WeatherDisplay:10.37,2013-02-10 21:49:00,
2013-02-10 13:50:00,46.2,29.5,29.99,WSW,242,0.0,0.0,52,0.00,BKN,FEW,0.00,265.7,WeatherDisplay:10.37,2013-02-10 21:50:00,
2013-02-10 13:51:00,46.2,29.1,29.99,WSW,242,0.0,0.0,51,0.00,BKN,FEW,0.00,265.7,WeatherDisplay:10.37,2013-02-10 21:51:00,
2013-02-10 13:52:00,46.2,29.5,29.99,WSW,242,0.0,0.0,52,0.00,BKN,FEW,0.00,263.6,WeatherDisplay:10.37,2013-02-10 21:52:00,
2013-02-10 13:54:00,46.2,29.1,29.99,WSW,242,0.0,0.0,51,0.00,BKN,FEW,0.00,262.5,WeatherDisplay:10.37,2013-02-10 21:54:00,
2013-02-10 13:56:00,46.4,29.7,29.99,WSW,242,0.0,0.0,52,0.00,BKN,FEW,0.00,260.4,WeatherDisplay:10.37,2013-02-10 21:56:00,
2013-02-10 13:57:00,46.5,30.3,29.99,WSW,242,0.0,0.0,53,0.00,BKN,FEW,0.00,258.3,WeatherDisplay:10.37,2013-02-10 21:57:00,
2013-02-10 14:00:00,46.4,29.7,29.98,WSW,242,0.0,0.0,52,0.00,BKN,FEW,0.00,258.3,WeatherDisplay:10.37,2013-02-10 22:00:00,
2013-02-10 14:02:00,46.4,29.2,29.98,WSW,242,0.0,0.0,51,0.00,BKN,FEW,0.00,262.5,WeatherDisplay:10.37,2013-02-10 22:02:00,
2013-02-10 14:05:00,46.4,28.8,29.98,WSW,242,0.0,0.0,50,0.00,BKN,FEW,0.00,245.7,WeatherDisplay:10.37,2013-02-10 22:05:00,
2013-02-10 14:07:00,46.4,28.8,29.98,WSW,242,0.0,0.0,50,0.00,BKN,FEW,0.00,238.4,WeatherDisplay:10.37,2013-02-10 22:07:00,
2013-02-10 14:10:00,46.5,29.3,29.98,WSW,242,0.0,0.0,51,0.00,BKN,FEW,0.00,247.8,WeatherDisplay:10.37,2013-02-10 22:10:00,
2013-02-10 14:12:00,46.7,29.5,29.98,WSW,242,0.0,0.0,51,0.00,BKN,FEW,0.00,247.8,WeatherDisplay:10.37,2013-02-10 22:12:00,
2013-02-10 14:14:00,46.7,29.5,29.98,WSW,242,0.0,0.0,51,0.00,BKN,FEW,0.00,247.8,WeatherDisplay:10.37,2013-02-10 22:14:00,
2013-02-10 14:15:00,46.8,29.6,29.98,WSW,242,0.0,0.0,51,0.00,BKN,FEW,0.00,255.2,WeatherDisplay:10.37,2013-02-10 22:15:00,
2013-02-10 14:17:00,47.0,30.3,29.98,WSW,242,0.0,0.0,52,0.00,SCT,FEW,0.00,725.6,WeatherDisplay:10.37,2013-02-10 22:17:00,
2013-02-10 14:19:00,47.3,30.1,29.98,WSW,242,0.0,1.1,51,0.00,FEW,,0.00,621.6,WeatherDisplay:10.37,2013-02-10 22:19:00,
2013-02-10 14:20:00,47.4,30.2,29.98,WSW,242,0.0,0.0,51,0.00,CLR,FEW,0.00,621.6,WeatherDisplay:10.37,2013-02-10 22:20:00,
2013-02-10 14:21:00,47.4,29.2,29.98,WSW,242,0.0,0.0,49,0.00,CLR,FEW,0.00,621.6,WeatherDisplay:10.37,2013-02-10 22:21:00,
2013-02-10 14:22:00,47.4,29.2,29.98,WSW,242,0.0,0.0,49,0.00,CLR,FEW,0.00,278.3,WeatherDisplay:10.37,2013-02-10 22:22:00,
2013-02-10 14:24:00,47.6,30.3,29.98,WSW,242,0.1,1.1,51,0.00,FEW,,0.00,253.1,WeatherDisplay:10.37,2013-02-10 22:24:00,
2013-02-10 14:25:00,47.6,29.4,29.98,WSW,242,0.0,0.0,49,0.00,FEW,,0.00,243.6,WeatherDisplay:10.37,2013-02-10 22:25:00,
2013-02-10 14:26:00,47.6,29.4,29.98,WSW,242,0.0,0.0,49,0.00,SCT,FEW,0.00,248.9,WeatherDisplay:10.37,2013-02-10 22:26:00,
2013-02-10 14:27:00,47.6,30.3,29.98,WSW,242,0.0,0.0,51,0.00,SCT,FEW,0.00,245.7,WeatherDisplay:10.37,2013-02-10 22:27:00,
2013-02-10 14:29:00,47.6,30.8,29.98,WSW,242,0.0,0.0,52,0.00,SCT,FEW,0.00,241.5,WeatherDisplay:10.37,2013-02-10 22:29:00,
2013-02-10 14:30:00,47.6,30.3,29.98,WSW,242,0.0,0.0,51,0.00,SCT,FEW,0.00,236.2,WeatherDisplay:10.37,2013-02-10 22:30:00,
2013-02-10 14:31:00,47.6,29.9,29.98,WSW,242,0.0,0.0,50,0.00,SCT,FEW,0.00,232.1,WeatherDisplay:10.37,2013-02-10 22:31:00,
2013-02-10 14:32:00,47.6,29.9,29.98,WSW,242,0.0,0.0,50,0.00,SCT,FEW,0.00,231.0,WeatherDisplay:10.37,2013-02-10 22:32:00,
2013-02-10 14:34:00,47.6,29.9,29.98,WSW,242,0.0,0.0,50,0.00,SCT,FEW,0.00,231.0,WeatherDisplay:10.37,2013-02-10 22:34:00,
2013-02-10 14:36:00,47.6,30.3,29.98,WSW,242,0.0,0.0,51,0.00,SCT,FEW,0.00,217.4,WeatherDisplay:10.37,2013-02-10 22:36:00,
2013-02-10 14:38:00,47.6,29.9,29.98,WSW,242,0.0,0.0,50,0.00,SCT,FEW,0.00,324.5,WeatherDisplay:10.37,2013-02-10 22:38:00,
2013-02-10 14:39:00,47.6,30.8,29.98,WSW,242,0.0,0.0,52,0.00,SCT,FEW,0.00,324.5,WeatherDisplay:10.37,2013-02-10 22:39:00,
2013-02-10 14:40:00,47.9,31.6,29.98,WSW,242,0.0,0.0,53,0.00,SCT,FEW,0.00,248.9,WeatherDisplay:10.37,2013-02-10 22:40:00,
2013-02-10 14:42:00,47.9,30.1,29.98,WSW,242,0.2,1.1,50,0.00,SCT,FEW,0.00,269.9,WeatherDisplay:10.37,2013-02-10 22:42:00,
2013-02-10 14:43:00,47.9,30.6,29.98,WSW,242,0.0,0.0,51,0.00,SCT,FEW,0.00,280.4,WeatherDisplay:10.37,2013-02-10 22:43:00,
2013-02-10 14:44:00,47.9,30.6,29.98,WSW,242,0.0,1.1,51,0.00,SCT,FEW,0.00,251.0,WeatherDisplay:10.37,2013-02-10 22:44:00,
2013-02-10 14:45:00,47.7,29.5,29.98,WSW,242,0.0,0.0,49,0.00,SCT,FEW,0.00,243.6,WeatherDisplay:10.37,2013-02-10 22:45:00,
2013-02-10 14:47:00,47.7,30.0,29.98,WSW,242,0.0,0.0,50,0.00,SCT,FEW,0.00,238.4,WeatherDisplay:10.37,2013-02-10 22:47:00,
2013-02-10 14:48:00,47.7,30.0,29.98,WSW,242,0.0,0.0,50,0.00,SCT,FEW,0.00,231.0,WeatherDisplay:10.37,2013-02-10 22:48:00,
2013-02-10 14:51:00,47.7,30.4,29.98,WSW,242,0.0,0.0,51,0.00,SCT,FEW,0.00,217.4,WeatherDisplay:10.37,2013-02-10 22:51:00,
2013-02-10 14:52:00,47.7,30.9,29.98,WSW,242,0.0,0.0,52,0.00,SCT,FEW,0.00,212.1,WeatherDisplay:10.37,2013-02-10 22:52:00,
2013-02-10 14:53:00,47.7,30.9,29.98,WSW,242,0.0,0.0,52,0.00,SCT,FEW,0.00,204.8,WeatherDisplay:10.37,2013-02-10 22:53:00,
2013-02-10 14:57:00,47.7,30.0,29.98,WSW,242,0.0,0.0,50,0.00,SCT,FEW,0.00,214.2,WeatherDisplay:10.37,2013-02-10 22:57:00,
2013-02-10 14:58:00,47.7,30.0,29.98,WSW,242,0.0,0.0,50,0.00,SCT,FEW,0.00,214.2,WeatherDisplay:10.37,2013-02-10 22:58:00,
2013-02-10 15:02:00,47.7,30.9,29.98,WSW,242,0.0,0.0,52,0.00,SCT,FEW,0.00,217.4,WeatherDisplay:10.37,2013-02-10 23:02:00,
2013-02-10 15:03:00,47.7,30.9,29.98,WSW,242,0.0,0.0,52,0.00,SCT,FEW,0.00,214.2,WeatherDisplay:10.37,2013-02-10 23:03:00,
2013-02-10 15:04:00,47.7,30.4,29.98,WSW,242,0.0,0.0,51,0.00,SCT,FEW,0.00,209.0,WeatherDisplay:10.37,2013-02-10 23:04:00,
2013-02-10 15:07:00,47.6,30.3,29.98,WSW,242,0.1,0.0,51,0.00,SCT,FEW,0.00,228.9,WeatherDisplay:10.37,2013-02-10 23:07:00,
2013-02-10 15:08:00,47.6,30.3,29.98,WSW,242,0.1,1.1,51,0.00,SCT,FEW,0.00,314.0,WeatherDisplay:10.37,2013-02-10 23:08:00,
2013-02-10 15:09:00,47.6,30.3,29.98,WSW,242,0.0,0.0,51,0.00,SCT,FEW,0.00,314.0,WeatherDisplay:10.37,2013-02-10 23:09:00,
2013-02-10 15:10:00,47.6,30.3,29.98,WSW,242,0.0,0.0,51,0.00,SCT,FEW,0.00,546.0,WeatherDisplay:10.37,2013-02-10 23:10:00,
2013-02-10 15:12:00,47.9,30.6,29.98,WSW,242,0.0,0.0,51,0.00,CLR,FEW,0.00,498.8,WeatherDisplay:10.37,2013-02-10 23:12:00,
2013-02-10 15:14:00,47.9,30.6,29.98,WSW,242,0.1,1.1,51,0.00,CLR,FEW,0.00,468.3,WeatherDisplay:10.37,2013-02-10 23:14:00,
2013-02-10 15:15:00,48.0,30.2,29.98,WSW,242,0.0,0.0,50,0.00,CLR,FEW,0.00,468.3,WeatherDisplay:10.37,2013-02-10 23:15:00,
2013-02-10 15:17:00,48.2,29.9,29.98,WSW,242,0.0,0.0,49,0.00,CLR,FEW,0.00,424.2,WeatherDisplay:10.37,2013-02-10 23:17:00,
2013-02-10 15:19:00,48.3,30.0,29.98,WSW,242,0.0,0.0,49,0.00,CLR,FEW,0.00,455.7,WeatherDisplay:10.37,2013-02-10 23:19:00,
2013-02-10 15:22:00,48.6,30.3,29.98,WSW,242,0.0,0.0,49,0.00,CLR,FEW,0.00,348.6,WeatherDisplay:10.37,2013-02-10 23:22:00,
2013-02-10 15:23:00,48.6,29.3,29.98,WSW,242,0.0,0.0,47,0.00,CLR,FEW,0.00,428.4,WeatherDisplay:10.37,2013-02-10 23:23:00,
2013-02-10 15:24:00,48.8,30.0,29.98,WSW,242,0.0,0.0,48,0.00,CLR,FEW,0.00,424.2,WeatherDisplay:10.37,2013-02-10 23:24:00,
2013-02-10 15:27:00,48.9,29.5,29.98,WSW,242,0.0,0.0,47,0.00,CLR,FEW,0.00,394.8,WeatherDisplay:10.37,2013-02-10 23:27:00,
2013-02-10 15:29:00,48.9,29.5,29.98,WSW,242,0.0,1.1,47,0.00,CLR,FEW,0.00,385.4,WeatherDisplay:10.37,2013-02-10 23:29:00,
2013-02-10 15:30:00,48.9,29.5,29.97,WSW,242,0.0,0.0,47,0.00,CLR,FEW,0.00,382.2,WeatherDisplay:10.37,2013-02-10 23:30:00,
2013-02-10 15:32:00,48.9,29.0,29.97,WSW,242,0.0,0.0,46,0.00,CLR,FEW,0.00,372.8,WeatherDisplay:10.37,2013-02-10 23:32:00,
2013-02-10 15:34:00,49.1,29.7,29.97,WSW,242,0.0,0.0,47,0.00,CLR,FEW,0.00,367.5,WeatherDisplay:10.37,2013-02-10 23:34:00,
2013-02-10 15:35:00,49.2,29.8,29.97,WSW,242,1.1,3.5,47,0.00,CLR,FEW,0.00,348.6,WeatherDisplay:10.37,2013-02-10 23:35:00,
2013-02-10 15:37:00,49.2,29.3,29.97,WSW,242,0.0,0.0,46,0.00,CLR,FEW,0.00,177.5,WeatherDisplay:10.37,2013-02-10 23:37:00,
2013-02-10 15:39:00,49.1,29.2,29.97,WSW,242,0.0,0.0,46,0.00,CLR,FEW,0.00,275.1,WeatherDisplay:10.37,2013-02-10 23:39:00,
2013-02-10 15:42:00,49.5,30.6,29.97,WSW,242,0.0,0.0,48,0.00,CLR,FEW,0.00,311.9,WeatherDisplay:10.37,2013-02-10 23:42:00,
2013-02-10 15:43:00,49.6,30.2,29.97,WSW,242,0.0,0.0,47,0.00,CLR,FEW,0.00,311.9,WeatherDisplay:10.37,2013-02-10 23:43:00,
2013-02-10 15:45:00,49.6,28.6,29.97,WSW,242,1.2,3.5,44,0.00,CLR,FEW,0.00,309.8,WeatherDisplay:10.37,2013-02-10 23:45:00,
2013-02-10 15:47:00,49.6,29.6,29.97,WSW,242,0.0,0.0,46,0.00,CLR,FEW,0.00,301.4,WeatherDisplay:10.37,2013-02-10 23:47:00,
2013-02-10 15:50:00,49.6,29.6,29.97,WSW,242,1.0,0.0,46,0.00,CLR,FEW,0.00,289.8,WeatherDisplay:10.37,2013-02-10 23:50:00,
2013-02-10 15:52:00,49.6,30.2,29.97,WSW,242,0.0,0.0,47,0.00,CLR,FEW,0.00,278.3,WeatherDisplay:10.37,2013-02-10 23:52:00,
2013-02-10 15:55:00,49.5,28.5,29.97,WSW,242,0.0,0.0,44,0.00,CLR,FEW,0.00,267.8,WeatherDisplay:10.37,2013-02-10 23:55:00,
2013-02-10 15:56:00,49.4,28.9,29.97,SE,133,0.0,3.9,45,0.00,CLR,FEW,0.00,263.6,WeatherDisplay:10.37,2013-02-10 23:56:00,
2013-02-10 15:57:00,49.1,28.7,29.97,SE,132,1.7,5.8,45,0.00,CLR,FEW,0.00,260.4,WeatherDisplay:10.37,2013-02-10 23:57:00,
2013-02-10 16:01:00,48.9,29.0,29.96,South,175,0.0,0.0,46,0.00,CLR,FEW,0.00,241.5,WeatherDisplay:10.37,2013-02-11 00:01:00,
2013-02-10 16:02:00,49.2,30.3,29.96,South,180,0.0,0.0,48,0.00,CLR,FEW,0.00,240.5,WeatherDisplay:10.37,2013-02-11 00:02:00,
2013-02-10 16:07:00,49.6,29.6,29.96,SW,227,0.0,0.0,46,0.00,CLR,FEW,0.00,223.7,WeatherDisplay:10.37,2013-02-11 00:07:00,
2013-02-10 16:08:00,49.8,29.8,29.96,SW,227,0.0,0.0,46,0.00,CLR,FEW,0.00,219.5,WeatherDisplay:10.37,2013-02-11 00:08:00,
2013-02-10 16:09:00,49.9,29.9,29.96,SW,227,0.0,0.0,46,0.00,CLR,FEW,0.00,217.4,WeatherDisplay:10.37,2013-02-11 00:09:00,
2013-02-10 16:12:00,50.1,30.1,29.96,WSW,240,0.0,0.0,46,0.00,CLR,FEW,0.00,206.9,WeatherDisplay:10.37,2013-02-11 00:12:00,
2013-02-10 16:13:00,50.1,29.0,29.96,WSW,240,0.0,0.0,44,0.00,CLR,FEW,0.00,202.7,WeatherDisplay:10.37,2013-02-11 00:13:00,
2013-02-10 16:14:00,50.1,29.0,29.96,WSW,240,0.0,0.0,44,0.00,CLR,FEW,0.00,199.5,WeatherDisplay:10.37,2013-02-11 00:14:00,
2013-02-10 16:19:00,49.9,29.4,29.96,WSW,239,0.0,0.0,45,0.00,CLR,FEW,0.00,182.7,WeatherDisplay:10.37,2013-02-11 00:19:00,
2013-02-10 16:23:00,49.5,27.9,29.96,WSW,239,0.0,0.0,43,0.00,CLR,FEW,0.00,163.8,WeatherDisplay:10.37,2013-02-11 00:23:00,
2013-02-10 16:24:00,49.6,28.6,29.96,WSW,239,0.0,0.0,44,0.00,CLR,FEW,0.00,162.8,WeatherDisplay:10.37,2013-02-11 00:24:00,
2013-02-10 16:25:00,49.6,28.6,29.96,WSW,239,0.0,0.0,44,0.00,CLR,FEW,0.00,158.6,WeatherDisplay:10.37,2013-02-11 00:25:00,
2013-02-10 16:29:00,49.8,29.3,29.96,WSW,239,0.0,0.0,45,0.00,CLR,FEW,0.00,143.8,WeatherDisplay:10.37,2013-02-11 00:29:00,
2013-02-10 16:30:00,49.9,29.4,29.96,WSW,239,0.0,0.0,45,0.00,CLR,FEW,0.00,141.8,WeatherDisplay:10.37,2013-02-11 00:30:00,
2013-02-10 16:34:00,49.6,28.0,29.96,WSW,239,0.0,0.0,43,0.00,CLR,FEW,0.00,127.1,WeatherDisplay:10.37,2013-02-11 00:34:00,
2013-02-10 16:35:00,49.6,28.6,29.96,WSW,239,0.0,0.0,44,0.00,CLR,FEW,0.00,126.0,WeatherDisplay:10.37,2013-02-11 00:35:00,
2013-02-10 16:36:00,49.8,28.7,29.96,WSW,239,0.0,0.0,44,0.00,CLR,FEW,0.00,121.8,WeatherDisplay:10.37,2013-02-11 00:36:00,
2013-02-10 16:39:00,49.8,27.6,29.96,WSW,239,0.0,0.0,42,0.00,FEW,,0.00,110.3,WeatherDisplay:10.37,2013-02-11 00:39:00,
2013-02-10 16:40:00,49.6,27.4,29.96,WSW,239,0.0,0.0,42,0.00,CLR,FEW,0.00,109.2,WeatherDisplay:10.37,2013-02-11 00:40:00,
2013-02-10 16:41:00,49.6,28.0,29.96,WSW,239,0.0,0.0,43,0.00,CLR,FEW,0.00,105.0,WeatherDisplay:10.37,2013-02-11 00:41:00,
2013-02-10 16:42:00,49.6,27.4,29.96,WSW,239,0.0,0.0,42,0.00,CLR,FEW,0.00,102.9,WeatherDisplay:10.37,2013-02-11 00:42:00,
2013-02-10 16:45:00,49.5,27.9,29.96,WSW,239,0.0,0.0,43,0.00,CLR,FEW,0.00,94.5,WeatherDisplay:10.37,2013-02-11 00:45:00,
2013-02-10 16:48:00,49.4,28.9,29.96,WSW,239,0.0,0.0,45,0.00,CLR,FEW,0.00,80.9,WeatherDisplay:10.37,2013-02-11 00:48:00,
2013-02-10 16:50:00,49.1,29.2,29.96,WSW,238,0.0,1.1,46,0.00,FEW,,0.00,66.2,WeatherDisplay:10.37,2013-02-11 00:50:00,
2013-02-10 16:53:00,48.8,30.0,29.96,WSW,238,0.0,0.0,48,0.00,SCT,FEW,0.00,42.0,WeatherDisplay:10.37,2013-02-11 00:53:00,
2013-02-10 16:54:00,48.6,30.3,29.96,WSW,238,0.0,0.0,49,0.00,BKN,FEW,0.00,27.3,WeatherDisplay:10.37,2013-02-11 00:54:00,
2013-02-10 16:56:00,48.0,29.7,29.96,WSW,238,1.9,3.9,49,0.00,BKN,FEW,0.00,24.2,WeatherDisplay:10.37,2013-02-11 00:56:00,
2013-02-10 16:59:00,47.6,30.3,29.96,WSW,238,0.0,0.0,51,0.00,BKN,FEW,0.00,22.1,WeatherDisplay:10.37,2013-02-11 00:59:00,
2013-02-10 17:00:00,47.6,30.8,29.96,WSW,238,0.0,0.0,52,0.00,BKN,FEW,0.00,20.0,WeatherDisplay:10.37,2013-02-11 01:00:00,
2013-02-10 17:01:00,47.3,30.1,29.96,WSW,238,0.0,0.0,51,0.00,BKN,FEW,0.00,20.0,WeatherDisplay:10.37,2013-02-11 01:01:00,
2013-02-10 17:04:00,46.7,30.9,29.96,WSW,238,0.0,0.0,54,0.00,BKN,FEW,0.00,18.9,WeatherDisplay:10.37,2013-02-11 01:04:00,
2013-02-10 17:05:00,46.7,30.9,29.96,WSW,238,0.0,0.0,54,0.00,BKN,FEW,0.00,18.9,WeatherDisplay:10.37,2013-02-11 01:05:00,
2013-02-10 17:06:00,46.5,30.7,29.96,WSW,238,0.0,0.0,54,0.00,BKN,FEW,0.00,16.8,WeatherDisplay:10.37,2013-02-11 01:06:00,
2013-02-10 17:07:00,46.4,30.6,29.96,WSW,238,0.0,0.0,54,0.00,BKN,FEW,0.00,16.8,WeatherDisplay:10.37,2013-02-11 01:07:00,
2013-02-10 17:10:00,46.0,30.7,29.96,WSW,239,0.0,0.0,55,0.00,BKN,FEW,0.00,16.8,WeatherDisplay:10.37,2013-02-11 01:10:00,
2013-02-10 17:11:00,45.8,31.0,29.96,WSW,239,0.0,0.0,56,0.00,BKN,FEW,0.00,16.8,WeatherDisplay:10.37,2013-02-11 01:11:00,
2013-02-10 17:13:00,45.7,31.8,29.96,WSW,239,0.0,0.0,58,0.00,BKN,FEW,0.00,16.8,WeatherDisplay:10.37,2013-02-11 01:13:00,
2013-02-10 17:15:00,45.5,31.6,29.96,WSW,239,0.0,0.0,58,0.00,BKN,FEW,0.00,12.6,WeatherDisplay:10.37,2013-02-11 01:15:00,
2013-02-10 17:16:00,45.4,31.0,29.96,WSW,239,0.0,0.0,57,0.00,BKN,FEW,0.00,11.6,WeatherDisplay:10.37,2013-02-11 01:16:00,
2013-02-10 17:19:00,45.1,31.2,29.96,WSW,239,0.0,0.0,58,0.00,BKN,FEW,0.00,9.5,WeatherDisplay:10.37,2013-02-11 01:19:00,
2013-02-10 17:20:00,44.9,31.4,29.96,WSW,239,0.0,0.0,59,0.00,BKN,FEW,0.00,9.5,WeatherDisplay:10.37,2013-02-11 01:20:00,
2013-02-10 17:21:00,44.9,31.4,29.96,WSW,239,0.0,0.0,59,0.00,BKN,FEW,0.00,7.4,WeatherDisplay:10.37,2013-02-11 01:21:00,
2013-02-10 17:24:00,44.6,31.1,29.96,WSW,239,0.0,0.0,59,0.00,SCT,FEW,0.00,5.3,WeatherDisplay:10.37,2013-02-11 01:24:00,
2013-02-10 17:26:00,44.5,31.1,29.96,WSW,238,0.0,0.0,59,0.00,OVC,FEW,0.00,0.0,WeatherDisplay:10.37,2013-02-11 01:26:00,
2013-02-10 17:27:00,44.5,31.1,29.96,SW,236,0.3,2.3,59,0.00,OVC,FEW,0.00,0.0,WeatherDisplay:10.37,2013-02-11 01:27:00,
2013-02-10 17:30:00,44.3,30.9,29.97,SSW,200,0.6,6.9,59,0.00,OVC,FEW,0.00,0.0,WeatherDisplay:10.37,2013-02-11 01:30:00,
2013-02-10 17:31:00,44.3,31.3,29.97,SSW,203,0.8,6.9,60,0.00,OVC,FEW,0.00,0.0,WeatherDisplay:10.37,2013-02-11 01:31:00,
2013-02-10 17:33:00,44.2,32.0,29.97,SSW,203,0.0,0.0,62,0.00,OVC,FEW,0.00,0.0,WeatherDisplay:10.37,2013-02-11 01:33:00,
2013-02-10 17:36:00,44.1,32.7,29.97,SE,134,0.0,0.0,64,0.00,OVC,FEW,0.00,0.0,WeatherDisplay:10.37,2013-02-11 01:36:00,
2013-02-10 17:37:00,43.9,32.5,29.97,SE,140,0.2,1.3,64,0.00,OVC,FEW,0.00,0.0,WeatherDisplay:10.37,2013-02-11 01:37:00,
2013-02-10 17:39:00,43.8,33.2,29.97,South,184,0.0,0.0,66,0.00,OVC,FEW,0.00,0.0,WeatherDisplay:10.37,2013-02-11 01:39:00,
2013-02-10 17:42:00,43.5,32.9,29.97,South,184,0.0,0.0,66,0.00,OVC,FEW,0.00,0.0,WeatherDisplay:10.37,2013-02-11 01:42:00,
2013-02-10 17:45:00,43.2,32.6,29.97,South,179,0.0,0.0,66,0.00,OVC,FEW,0.00,0.0,WeatherDisplay:10.37,2013-02-11 01:45:00,
2013-02-10 17:47:00,43.1,32.9,29.98,South,182,0.0,0.0,67,0.00,OVC,FEW,0.00,0.0,WeatherDisplay:10.37,2013-02-11 01:47:00,
2013-02-10 17:48:00,42.9,33.1,29.98,South,180,0.0,0.0,68,0.00,OVC,FEW,0.00,0.0,WeatherDisplay:10.37,2013-02-11 01:48:00,
2013-02-10 17:50:00,42.9,33.8,29.98,SE,141,0.0,0.0,70,0.00,OVC,FEW,0.00,0.0,WeatherDisplay:10.37,2013-02-11 01:50:00,
2013-02-10 17:52:00,42.9,33.8,29.98,SE,139,0.0,0.0,70,0.00,OVC,FEW,0.00,0.0,WeatherDisplay:10.37,2013-02-11 01:52:00,
2013-02-10 17:53:00,42.9,34.1,29.98,South,177,0.0,0.0,71,0.00,OVC,FEW,0.00,0.0,WeatherDisplay:10.37,2013-02-11 01:53:00,
2013-02-10 17:55:00,42.8,34.4,29.98,South,189,1.0,0.0,72,0.00,OVC,FEW,0.00,0.0,WeatherDisplay:10.37,2013-02-11 01:55:00,
2013-02-10 17:57:00,42.6,34.2,29.98,South,182,0.4,3.5,72,0.00,OVC,FEW,0.00,0.0,WeatherDisplay:10.37,2013-02-11 01:57:00,
2013-02-10 17:58:00,42.6,34.5,29.98,South,182,0.1,3.5,73,0.00,CLR,FEW,0.00,0.0,WeatherDisplay:10.37,2013-02-11 01:58:00,
2013-02-10 17:59:00,42.6,34.5,29.98,SSE,153,0.0,0.0,73,0.00,CLR,FEW,0.00,0.0,WeatherDisplay:10.37,2013-02-11 01:59:00,
2013-02-10 18:01:00,42.5,34.5,29.98,South,190,3.0,6.9,73,0.00,CLR,FEW,0.00,0.0,WeatherDisplay:10.37,2013-02-11 02:01:00,
2013-02-10 18:02:00,42.3,34.3,29.98,South,190,0.0,0.0,73,0.00,CLR,FEW,0.00,0.0,WeatherDisplay:10.37,2013-02-11 02:02:00,
2013-02-10 18:03:00,42.3,34.3,29.98,South,190,0.0,0.0,73,0.00,CLR,FEW,0.00,0.0,WeatherDisplay:10.37,2013-02-11 02:03:00,
2013-02-10 18:04:00,42.3,34.6,29.98,South,190,0.0,0.0,74,0.00,CLR,FEW,0.00,0.0,WeatherDisplay:10.37,2013-02-11 02:04:00,
2013-02-10 18:07:00,42.2,34.5,29.98,South,191,0.0,0.0,74,0.00,CLR,FEW,0.00,0.0,WeatherDisplay:10.37,2013-02-11 02:07:00,
2013-02-10 18:08:00,42.2,34.5,29.98,South,191,0.0,0.0,74,0.00,CLR,FEW,0.00,0.0,WeatherDisplay:10.37,2013-02-11 02:08:00,
2013-02-10 18:09:00,42.1,34.4,29.98,South,175,0.0,0.0,74,0.00,CLR,FEW,0.00,0.0,WeatherDisplay:10.37,2013-02-11 02:09:00,
2013-02-10 18:13:00,41.9,34.2,29.98,South,175,0.0,0.0,74,0.00,CLR,FEW,0.00,0.0,WeatherDisplay:10.37,2013-02-11 02:13:00,
2013-02-10 18:16:00,41.9,34.6,29.98,South,175,0.0,0.0,75,0.00,CLR,FEW,0.00,0.0,WeatherDisplay:10.37,2013-02-11 02:16:00,
2013-02-10 18:18:00,41.8,34.5,29.98,South,175,0.0,0.0,75,0.00,CLR,FEW,0.00,0.0,WeatherDisplay:10.37,2013-02-11 02:18:00,
2013-02-10 18:19:00,41.8,34.5,29.98,South,175,0.0,0.0,75,0.00,CLR,FEW,0.00,0.0,WeatherDisplay:10.37,2013-02-11 02:19:00,
2013-02-10 18:20:00,41.8,34.5,29.98,South,175,0.0,0.0,75,0.00,CLR,FEW,0.00,0.0,WeatherDisplay:10.37,2013-02-11 02:20:00,
2013-02-10 18:21:00,41.8,34.5,29.98,South,175,0.0,0.0,75,0.00,CLR,FEW,0.00,0.0,WeatherDisplay:10.37,2013-02-11 02:21:00,
2013-02-10 18:24:00,41.8,34.5,29.98,SE,128,0.0,0.0,75,0.00,CLR,FEW,0.00,0.0,WeatherDisplay:10.37,2013-02-11 02:24:00,
2013-02-10 18:25:00,41.8,34.5,29.98,SE,128,0.0,0.0,75,0.00,CLR,FEW,0.00,0.0,WeatherDisplay:10.37,2013-02-11 02:25:00,
2013-02-10 18:26:00,41.6,34.3,29.98,SE,126,0.5,2.3,75,0.00,CLR,FEW,0.00,0.0,WeatherDisplay:10.37,2013-02-11 02:26:00,
2013-02-10 18:29:00,41.6,34.6,29.98,SE,127,0.0,2.3,76,0.00,CLR,FEW,0.00,0.0,WeatherDisplay:10.37,2013-02-11 02:29:00,
2013-02-10 18:30:00,41.6,34.6,29.98,SE,127,0.0,0.0,76,0.00,CLR,FEW,0.00,0.0,WeatherDisplay:10.37,2013-02-11 02:30:00,
2013-02-10 18:31:00,41.6,34.6,29.98,SE,130,2.1,9.1,76,0.00,CLR,FEW,0.00,0.0,WeatherDisplay:10.37,2013-02-11 02:31:00,
2013-02-10 18:32:00,41.6,34.6,29.98,SSE,167,3.0,10.4,76,0.00,CLR,FEW,0.00,0.0,WeatherDisplay:10.37,2013-02-11 02:32:00,
2013-02-10 18:35:00,41.6,34.6,29.98,SE,128,0.1,9.2,76,0.00,CLR,FEW,0.00,0.0,WeatherDisplay:10.37,2013-02-11 02:35:00,
2013-02-10 18:36:00,41.6,34.6,29.98,SE,128,0.2,6.5,76,0.00,CLR,FEW,0.00,0.0,WeatherDisplay:10.37,2013-02-11 02:36:00,
2013-02-10 18:37:00,41.6,34.6,29.98,SE,144,0.9,6.9,76,0.00,CLR,FEW,0.00,0.0,WeatherDisplay:10.37,2013-02-11 02:37:00,
2013-02-10 18:40:00,41.6,34.6,29.98,SE,140,0.0,0.0,76,0.00,CLR,FEW,0.00,0.0,WeatherDisplay:10.37,2013-02-11 02:40:00,
2013-02-10 18:41:00,41.6,34.6,29.98,SE,132,0.0,0.0,76,0.00,CLR,FEW,0.00,0.0,WeatherDisplay:10.37,2013-02-11 02:41:00,
2013-02-10 18:42:00,41.6,34.9,29.98,SE,134,0.0,0.0,77,0.00,CLR,FEW,0.00,0.0,WeatherDisplay:10.37,2013-02-11 02:42:00,
2013-02-10 18:45:00,41.6,34.9,29.98,SE,135,0.0,0.0,77,0.00,CLR,FEW,0.00,0.0,WeatherDisplay:10.37,2013-02-11 02:45:00,
2013-02-10 18:46:00,41.6,34.9,29.98,South,170,0.0,0.0,77,0.00,CLR,FEW,0.00,0.0,WeatherDisplay:10.37,2013-02-11 02:46:00,
2013-02-10 18:47:00,41.6,34.9,29.98,South,170,0.0,0.0,77,0.00,CLR,FEW,0.00,0.0,WeatherDisplay:10.37,2013-02-11 02:47:00,
2013-02-10 18:48:00,41.6,34.9,29.98,South,189,0.0,0.0,77,0.00,CLR,FEW,0.00,0.0,WeatherDisplay:10.37,2013-02-11 02:48:00,
2013-02-10 18:50:00,41.6,34.6,29.98,East,90,0.0,8.1,76,0.00,CLR,FEW,0.00,0.0,WeatherDisplay:10.37,2013-02-11 02:50:00,
2013-02-10 18:51:00,41.6,34.6,29.98,East,99,0.0,0.0,76,0.00,CLR,FEW,0.00,0.0,WeatherDisplay:10.37,2013-02-11 02:51:00,
2013-02-10 18:53:00,41.6,34.6,29.98,SE,127,0.0,0.0,76,0.00,CLR,FEW,0.00,0.0,WeatherDisplay:10.37,2013-02-11 02:53:00,
2013-02-10 18:54:00,41.6,34.6,29.98,SE,127,0.0,0.0,76,0.00,CLR,FEW,0.00,0.0,WeatherDisplay:10.37,2013-02-11 02:54:00,
2013-02-10 18:56:00,41.6,34.6,29.98,South,182,3.2,0.0,76,0.00,CLR,FEW,0.00,0.0,WeatherDisplay:10.37,2013-02-11 02:56:00,
2013-02-10 18:57:00,41.6,34.6,29.98,South,182,2.8,9.2,76,0.00,CLR,FEW,0.00,0.0,WeatherDisplay:10.37,2013-02-11 02:57:00,
2013-02-10 18:59:00,41.6,34.6,29.98,South,182,0.0,0.0,76,0.00,CLR,FEW,0.00,0.0,WeatherDisplay:10.37,2013-02-11 02:59:00,
2013-02-10 19:01:00,41.6,34.6,29.99,SSE,155,0.0,0.0,76,0.00,CLR,FEW,0.00,0.0,WeatherDisplay:10.37,2013-02-11 03:01:00,
2013-02-10 19:02:00,41.6,34.6,29.99,SSW,210,0.1,1.1,76,0.00,CLR,FEW,0.00,0.0,WeatherDisplay:10.37,2013-02-11 03:02:00,
2013-02-10 19:03:00,41.6,34.6,29.99,South,180,0.1,10.4,76,0.00,CLR,FEW,0.00,0.0,WeatherDisplay:10.37,2013-02-11 03:03:00,
2013-02-10 19:04:00,41.6,34.6,29.99,South,180,0.1,1.1,76,0.00,CLR,FEW,0.00,0.0,WeatherDisplay:10.37,2013-02-11 03:04:00,
2013-02-10 19:07:00,41.5,34.5,29.99,SSW,211,0.0,0.0,76,0.00,CLR,FEW,0.00,0.0,WeatherDisplay:10.37,2013-02-11 03:07:00,
2013-02-10 19:09:00,41.5,34.5,29.99,SSW,209,0.0,0.0,76,0.00,CLR,FEW,0.00,0.0,WeatherDisplay:10.37,2013-02-11 03:09:00,
2013-02-10 19:12:00,41.5,34.5,29.99,SE,145,0.0,0.0,76,0.00,CLR,FEW,0.00,0.0,WeatherDisplay:10.37,2013-02-11 03:12:00,
2013-02-10 19:14:00,41.5,34.5,29.99,SE,144,0.1,1.3,76,0.00,CLR,FEW,0.00,0.0,WeatherDisplay:10.37,2013-02-11 03:14:00,
2013-02-10 19:15:00,41.5,34.5,29.99,SE,142,0.1,1.1,76,0.00,CLR,FEW,0.00,0.0,WeatherDisplay:10.37,2013-02-11 03:15:00,
2013-02-10 19:17:00,41.5,34.5,29.99,ESE,105,0.0,2.6,76,0.00,CLR,FEW,0.00,0.0,WeatherDisplay:10.37,2013-02-11 03:17:00,
2013-02-10 19:19:00,41.5,34.5,29.99,SE,130,2.4,8.1,76,0.00,CLR,FEW,0.00,0.0,WeatherDisplay:10.37,2013-02-11 03:19:00,
2013-02-10 19:20:00,41.5,34.5,29.99,SE,130,0.0,6.9,76,0.00,CLR,FEW,0.00,0.0,WeatherDisplay:10.37,2013-02-11 03:20:00,
2013-02-10 19:21:00,41.5,34.5,29.99,SE,130,0.0,0.0,76,0.00,CLR,FEW,0.00,0.0,WeatherDisplay:10.37,2013-02-11 03:21:00,
2013-02-10 19:22:00,41.5,34.5,29.99,ESE,115,0.0,0.0,76,0.00,CLR,FEW,0.00,0.0,WeatherDisplay:10.37,2013-02-11 03:22:00,
2013-02-10 19:24:00,41.5,34.5,29.99,ESE,104,0.0,0.0,76,0.00,CLR,FEW,0.00,0.0,WeatherDisplay:10.37,2013-02-11 03:24:00,
2013-02-10 19:26:00,41.5,34.5,29.99,ESE,105,0.0,0.0,76,0.00,CLR,FEW,0.00,0.0,WeatherDisplay:10.37,2013-02-11 03:26:00,
2013-02-10 19:27:00,41.5,34.5,29.99,ESE,105,0.0,0.0,76,0.00,CLR,FEW,0.00,0.0,WeatherDisplay:10.37,2013-02-11 03:27:00,
2013-02-10 19:29:00,41.3,34.3,29.99,ESE,114,0.0,0.0,76,0.00,CLR,FEW,0.00,0.0,WeatherDisplay:10.37,2013-02-11 03:29:00,
2013-02-10 19:31:00,41.3,34.3,30.00,ESE,113,0.0,2.3,76,0.00,CLR,FEW,0.00,0.0,WeatherDisplay:10.37,2013-02-11 03:31:00,
2013-02-10 19:33:00,41.3,34.3,30.00,ESE,113,0.0,0.0,76,0.00,CLR,FEW,0.00,0.0,WeatherDisplay:10.37,2013-02-11 03:33:00,
2013-02-10 19:34:00,41.3,34.3,30.00,ESE,113,0.0,0.0,76,0.00,CLR,FEW,0.00,0.0,WeatherDisplay:10.37,2013-02-11 03:34:00,
2013-02-10 19:35:00,41.3,34.3,30.00,ESE,111,0.0,0.0,76,0.00,CLR,FEW,0.00,0.0,WeatherDisplay:10.37,2013-02-11 03:35:00,
2013-02-10 19:39:00,41.2,34.5,30.00,SE,126,0.1,1.1,77,0.00,CLR,FEW,0.00,0.0,WeatherDisplay:10.37,2013-02-11 03:39:00,
2013-02-10 19:40:00,41.2,34.5,30.00,SE,128,0.0,0.0,77,0.00,CLR,FEW,0.00,0.0,WeatherDisplay:10.37,2013-02-11 03:40:00,
2013-02-10 19:41:00,41.2,34.5,30.00,SE,128,0.0,0.0,77,0.00,CLR,FEW,0.00,0.0,WeatherDisplay:10.37,2013-02-11 03:41:00,
2013-02-10 19:44:00,41.1,34.4,30.00,SE,128,0.0,0.0,77,0.00,CLR,FEW,0.00,0.0,WeatherDisplay:10.37,2013-02-11 03:44:00,
2013-02-10 19:46:00,41.1,34.4,30.00,SE,128,0.0,0.0,77,0.00,CLR,FEW,0.00,0.0,WeatherDisplay:10.37,2013-02-11 03:46:00,
2013-02-10 19:47:00,41.1,34.4,30.00,SE,128,0.0,0.0,77,0.00,CLR,FEW,0.00,0.0,WeatherDisplay:10.37,2013-02-11 03:47:00,
2013-02-10 19:49:00,41.1,34.4,30.00,SE,128,0.0,0.0,77,0.00,CLR,FEW,0.00,0.0,WeatherDisplay:10.37,2013-02-11 03:49:00,
2013-02-10 19:50:00,41.1,34.4,30.00,SE,126,0.0,0.0,77,0.00,CLR,FEW,0.00,0.0,WeatherDisplay:10.37,2013-02-11 03:50:00,
2013-02-10 19:51:00,41.1,34.8,30.00,SE,128,1.7,3.9,78,0.00,CLR,FEW,0.00,0.0,WeatherDisplay:10.37,2013-02-11 03:51:00,
2013-02-10 19:53:00,41.1,34.4,30.00,SE,128,0.0,3.5,77,0.00,CLR,FEW,0.00,0.0,WeatherDisplay:10.37,2013-02-11 03:53:00,
2013-02-10 19:54:00,41.1,34.4,30.00,SE,128,0.0,2.6,77,0.00,CLR,FEW,0.00,0.0,WeatherDisplay:10.37,2013-02-11 03:54:00,
2013-02-10 19:56:00,41.1,34.4,30.00,SE,137,1.9,6.9,77,0.00,CLR,FEW,0.00,0.0,WeatherDisplay:10.37,2013-02-11 03:56:00,
2013-02-10 19:57:00,41.1,34.4,30.00,SE,136,0.0,6.9,77,0.00,CLR,FEW,0.00,0.0,WeatherDisplay:10.37,2013-02-11 03:57:00,
2013-02-10 20:00:00,41.1,34.4,30.00,SE,132,2.0,6.9,77,0.00,CLR,FEW,0.00,0.0,WeatherDisplay:10.37,2013-02-11 04:00:00,
2013-02-10 20:01:00,41.1,34.4,30.00,SE,142,4.0,9.2,77,0.00,CLR,FEW,0.00,0.0,WeatherDisplay:10.37,2013-02-11 04:01:00,
2013-02-10 20:03:00,41.1,34.4,30.00,SE,130,2.3,6.5,77,0.00,CLR,FEW,0.00,0.0,WeatherDisplay:10.37,2013-02-11 04:03:00,
2013-02-10 20:05:00,41.1,34.4,30.00,SE,140,0.0,6.9,77,0.00,CLR,FEW,0.00,0.0,WeatherDisplay:10.37,2013-02-11 04:05:00,
2013-02-10 20:06:00,41.1,34.4,30.00,SE,140,0.0,0.0,77,0.00,CLR,FEW,0.00,0.0,WeatherDisplay:10.37,2013-02-11 04:06:00,
2013-02-10 20:08:00,40.9,34.2,30.00,SSE,157,0.0,0.0,77,0.00,CLR,FEW,0.00,0.0,WeatherDisplay:10.37,2013-02-11 04:08:00,
2013-02-10 20:10:00,40.9,34.2,30.00,SSE,157,0.0,0.0,77,0.00,CLR,FEW,0.00,0.0,WeatherDisplay:10.37,2013-02-11 04:10:00,
2013-02-10 20:11:00,40.9,34.2,30.00,SSE,155,0.0,0.0,77,0.00,CLR,FEW,0.00,0.0,WeatherDisplay:10.37,2013-02-11 04:11:00,
2013-02-10 20:13:00,40.9,34.2,30.00,SE,135,0.1,0.0,77,0.00,CLR,FEW,0.00,0.0,WeatherDisplay:10.37,2013-02-11 04:13:00,
2013-02-10 20:14:00,40.9,34.2,30.00,SE,135,0.1,1.1,77,0.00,CLR,FEW,0.00,0.0,WeatherDisplay:10.37,2013-02-11 04:14:00,
2013-02-10 20:15:00,40.9,34.2,30.01,SE,135,0.0,0.0,77,0.00,CLR,FEW,0.00,0.0,WeatherDisplay:10.37,2013-02-11 04:15:00,
2013-02-10 20:17:00,40.9,34.2,30.01,SE,135,0.0,0.0,77,0.00,CLR,FEW,0.00,0.0,WeatherDisplay:10.37,2013-02-11 04:17:00,
2013-02-10 20:18:00,40.9,34.2,30.01,SE,135,0.0,0.0,77,0.00,CLR,FEW,0.00,0.0,WeatherDisplay:10.37,2013-02-11 04:18:00,
2013-02-10 20:19:00,40.9,34.2,30.01,SE,134,0.0,0.0,77,0.00,CLR,FEW,0.00,0.0,WeatherDisplay:10.37,2013-02-11 04:19:00,
2013-02-10 20:21:00,40.9,34.2,30.01,SE,137,0.0,0.0,77,0.00,CLR,FEW,0.00,0.0,WeatherDisplay:10.37,2013-02-11 04:21:00,
2013-02-10 20:23:00,41.1,34.4,30.01,SE,129,0.0,3.5,77,0.00,CLR,FEW,0.00,0.0,WeatherDisplay:10.37,2013-02-11 04:23:00,
2013-02-10 20:25:00,41.1,34.4,30.01,SE,130,0.0,0.0,77,0.00,CLR,FEW,0.00,0.0,WeatherDisplay:10.37,2013-02-11 04:25:00,
2013-02-10 20:26:00,41.1,34.4,30.01,SE,130,0.3,3.5,77,0.00,CLR,FEW,0.00,0.0,WeatherDisplay:10.37,2013-02-11 04:26:00,
2013-02-10 20:29:00,41.2,34.5,30.01,SE,130,0.0,3.5,77,0.00,CLR,FEW,0.00,0.0,WeatherDisplay:10.37,2013-02-11 04:29:00,
2013-02-10 20:30:00,41.2,34.5,30.01,SE,130,0.0,0.0,77,0.00,CLR,FEW,0.00,0.0,WeatherDisplay:10.37,2013-02-11 04:30:00,
2013-02-10 20:31:00,41.2,34.5,30.01,SE,130,0.0,0.0,77,0.00,CLR,FEW,0.00,0.0,WeatherDisplay:10.37,2013-02-11 04:31:00,
2013-02-10 20:32:00,41.2,34.5,30.01,SE,130,0.1,1.3,77,0.00,CLR,FEW,0.00,0.0,WeatherDisplay:10.37,2013-02-11 04:32:00,
2013-02-10 20:35:00,41.2,34.5,30.01,SE,130,0.0,0.0,77,0.00,CLR,FEW,0.00,0.0,WeatherDisplay:10.37,2013-02-11 04:35:00,
2013-02-10 20:37:00,41.3,34.6,30.01,SE,130,0.0,0.0,77,0.00,CLR,FEW,0.00,0.0,WeatherDisplay:10.37,2013-02-11 04:37:00,
2013-02-10 20:40:00,41.3,34.6,30.01,SE,130,0.0,0.0,77,0.00,CLR,FEW,0.00,0.0,WeatherDisplay:10.37,2013-02-11 04:40:00,
2013-02-10 20:41:00,41.3,34.6,30.01,SE,130,0.0,0.0,77,0.00,CLR,FEW,0.00,0.0,WeatherDisplay:10.37,2013-02-11 04:41:00,
2013-02-10 20:43:00,41.3,34.6,30.01,SE,130,0.0,0.0,77,0.00,CLR,FEW,0.00,0.0,WeatherDisplay:10.37,2013-02-11 04:43:00,
2013-02-10 20:46:00,41.3,34.6,30.01,SE,130,0.0,0.0,77,0.00,CLR,FEW,0.00,0.0,WeatherDisplay:10.37,2013-02-11 04:46:00,
2013-02-10 20:48:00,41.3,34.6,30.01,SE,130,0.0,0.0,77,0.00,CLR,FEW,0.00,0.0,WeatherDisplay:10.37,2013-02-11 04:48:00,
2013-02-10 20:50:00,41.3,34.6,30.01,SE,130,0.0,0.0,77,0.00,CLR,FEW,0.00,0.0,WeatherDisplay:10.37,2013-02-11 04:50:00,
2013-02-10 20:51:00,41.5,34.8,30.01,SE,130,0.0,0.0,77,0.00,CLR,FEW,0.00,0.0,WeatherDisplay:10.37,2013-02-11 04:51:00,
2013-02-10 20:53:00,41.5,34.8,30.01,SE,130,0.0,0.0,77,0.00,CLR,FEW,0.00,0.0,WeatherDisplay:10.37,2013-02-11 04:53:00,
2013-02-10 20:54:00,41.5,34.8,30.01,SE,130,0.0,0.0,77,0.00,CLR,FEW,0.00,0.0,WeatherDisplay:10.37,2013-02-11 04:54:00,
2013-02-10 20:56:00,41.5,34.8,30.01,SE,130,0.0,0.0,77,0.00,CLR,FEW,0.00,0.0,WeatherDisplay:10.37,2013-02-11 04:56:00,
2013-02-10 20:58:00,41.5,34.8,30.01,SE,130,0.0,0.0,77,0.00,CLR,FEW,0.00,0.0,WeatherDisplay:10.37,2013-02-11 04:58:00,
2013-02-10 21:00:00,41.5,34.8,30.01,SE,130,0.0,0.0,77,0.00,CLR,FEW,0.00,0.0,WeatherDisplay:10.37,2013-02-11 05:00:00,
2013-02-10 21:01:00,41.5,34.8,30.01,SE,130,0.0,0.0,77,0.00,CLR,FEW,0.00,0.0,WeatherDisplay:10.37,2013-02-11 05:01:00,
2013-02-10 21:05:00,41.5,34.8,30.01,SE,136,0.0,0.0,77,0.00,CLR,FEW,0.00,0.0,WeatherDisplay:10.37,2013-02-11 05:05:00,
2013-02-10 21:06:00,41.5,34.8,30.01,SE,136,0.0,0.0,77,0.00,CLR,FEW,0.00,0.0,WeatherDisplay:10.37,2013-02-11 05:06:00,
2013-02-10 21:08:00,41.5,34.8,30.01,SE,136,0.0,0.0,77,0.00,CLR,FEW,0.00,0.0,WeatherDisplay:10.37,2013-02-11 05:08:00,
2013-02-10 21:11:00,41.5,34.8,30.01,SE,136,0.0,0.0,77,0.00,CLR,FEW,0.00,0.0,WeatherDisplay:10.37,2013-02-11 05:11:00,
2013-02-10 21:13:00,41.5,34.8,30.01,SE,136,0.0,0.0,77,0.00,CLR,FEW,0.00,0.0,WeatherDisplay:10.37,2013-02-11 05:13:00,
2013-02-10 21:15:00,41.5,34.8,30.01,SE,136,0.0,0.0,77,0.00,CLR,FEW,0.00,0.0,WeatherDisplay:10.37,2013-02-11 05:15:00,
2013-02-10 21:16:00,41.5,34.8,30.01,SE,136,0.0,0.0,77,0.00,CLR,FEW,0.00,0.0,WeatherDisplay:10.37,2013-02-11 05:16:00,
2013-02-10 21:17:00,41.5,34.8,30.01,SE,136,0.0,0.0,77,0.00,CLR,FEW,0.00,0.0,WeatherDisplay:10.37,2013-02-11 05:17:00,
2013-02-10 21:18:00,41.5,34.8,30.01,SE,136,0.0,0.0,77,0.00,CLR,FEW,0.00,0.0,WeatherDisplay:10.37,2013-02-11 05:18:00,
2013-02-10 21:20:00,41.5,34.8,30.01,SE,136,0.0,0.0,77,0.00,CLR,FEW,0.00,0.0,WeatherDisplay:10.37,2013-02-11 05:20:00,
2013-02-10 21:21:00,41.5,34.8,30.01,SE,136,0.0,0.0,77,0.00,CLR,FEW,0.00,0.0,WeatherDisplay:10.37,2013-02-11 05:21:00,
2013-02-10 21:22:00,41.5,34.8,30.01,SE,136,0.0,0.0,77,0.00,CLR,FEW,0.00,0.0,WeatherDisplay:10.37,2013-02-11 05:22:00,
2013-02-10 21:23:00,41.5,34.8,30.01,SE,136,0.0,0.0,77,0.00,CLR,FEW,0.00,0.0,WeatherDisplay:10.37,2013-02-11 05:23:00,
2013-02-10 21:26:00,41.5,34.8,30.01,SE,136,0.0,0.0,77,0.00,CLR,FEW,0.00,0.0,WeatherDisplay:10.37,2013-02-11 05:26:00,
2013-02-10 21:27:00,41.5,34.8,30.01,SE,136,0.0,0.0,77,0.00,CLR,FEW,0.00,0.0,WeatherDisplay:10.37,2013-02-11 05:27:00,
2013-02-10 21:28:00,41.5,34.8,30.01,SE,136,0.0,0.0,77,0.00,CLR,FEW,0.00,0.0,WeatherDisplay:10.37,2013-02-11 05:28:00,
2013-02-10 21:32:00,41.5,34.8,30.02,SE,136,0.0,0.0,77,0.00,CLR,FEW,0.00,0.0,WeatherDisplay:10.37,2013-02-11 05:32:00,
2013-02-10 21:33:00,41.5,34.8,30.02,SE,136,0.0,0.0,77,0.00,CLR,FEW,0.00,0.0,WeatherDisplay:10.37,2013-02-11 05:33:00,
2013-02-10 21:38:00,41.5,34.8,30.02,SE,136,0.0,0.0,77,0.00,CLR,FEW,0.00,0.0,WeatherDisplay:10.37,2013-02-11 05:38:00,
2013-02-10 21:39:00,41.5,34.8,30.02,SE,136,0.0,0.0,77,0.00,CLR,FEW,0.00,0.0,WeatherDisplay:10.37,2013-02-11 05:39:00,
2013-02-10 21:43:00,41.5,34.8,30.02,SE,136,0.0,0.0,77,0.00,CLR,FEW,0.00,0.0,WeatherDisplay:10.37,2013-02-11 05:43:00,
2013-02-10 21:44:00,41.5,34.8,30.02,SE,136,0.0,0.0,77,0.00,CLR,FEW,0.00,0.0,WeatherDisplay:10.37,2013-02-11 05:44:00,
2013-02-10 21:49:00,41.5,34.8,30.01,ESE,119,0.0,0.0,77,0.00,CLR,FEW,0.00,0.0,WeatherDisplay:10.37,2013-02-11 05:49:00,
2013-02-10 21:50:00,41.5,34.8,30.01,SE,128,0.0,0.0,77,0.00,CLR,FEW,0.00,0.0,WeatherDisplay:10.37,2013-02-11 05:50:00,
2013-02-10 21:54:00,41.5,34.8,30.01,ESE,119,0.0,0.0,77,0.00,CLR,FEW,0.00,0.0,WeatherDisplay:10.37,2013-02-11 05:54:00,
2013-02-10 21:55:00,41.5,34.8,30.01,ESE,120,0.0,0.0,77,0.00,CLR,FEW,0.00,0.0,WeatherDisplay:10.37,2013-02-11 05:55:00,
2013-02-10 22:00:00,41.3,34.6,30.01,ESE,119,0.0,0.0,77,0.00,CLR,FEW,0.00,0.0,WeatherDisplay:10.37,2013-02-11 06:00:00,
2013-02-10 22:01:00,41.3,34.6,30.01,ESE,119,0.0,0.0,77,0.00,CLR,FEW,0.00,0.0,WeatherDisplay:10.37,2013-02-11 06:01:00,
2013-02-10 22:05:00,41.3,34.6,30.01,ESE,119,0.0,0.0,77,0.00,CLR,FEW,0.00,0.0,WeatherDisplay:10.37,2013-02-11 06:05:00,
2013-02-10 22:06:00,41.3,34.6,30.01,ESE,119,0.0,0.0,77,0.00,CLR,FEW,0.00,0.0,WeatherDisplay:10.37,2013-02-11 06:06:00,
2013-02-10 22:10:00,41.3,34.3,30.01,ESE,119,0.0,0.0,76,0.00,CLR,FEW,0.00,0.0,WeatherDisplay:10.37,2013-02-11 06:10:00,
2013-02-10 22:11:00,41.3,34.3,30.01,ESE,119,0.0,0.0,76,0.00,CLR,FEW,0.00,0.0,WeatherDisplay:10.37,2013-02-11 06:11:00,
2013-02-10 22:15:00,41.3,34.3,30.02,ESE,119,0.0,0.0,76,0.00,CLR,FEW,0.00,0.0,WeatherDisplay:10.37,2013-02-11 06:15:00,
2013-02-10 22:16:00,41.3,34.3,30.02,ESE,119,0.0,0.0,76,0.00,CLR,FEW,0.00,0.0,WeatherDisplay:10.37,2013-02-11 06:16:00,
2013-02-10 22:20:00,41.3,34.0,30.02,ESE,119,0.0,0.0,75,0.00,CLR,FEW,0.00,0.0,WeatherDisplay:10.37,2013-02-11 06:20:00,
2013-02-10 22:21:00,41.3,34.0,30.02,ESE,119,0.0,0.0,75,0.00,CLR,FEW,0.00,0.0,WeatherDisplay:10.37,2013-02-11 06:21:00,
2013-02-10 22:22:00,41.5,34.2,30.02,ESE,119,0.0,0.0,75,0.00,CLR,FEW,0.00,0.0,WeatherDisplay:10.37,2013-02-11 06:22:00,
2013-02-10 22:25:00,41.5,34.2,30.02,ESE,119,0.0,0.0,75,0.00,CLR,FEW,0.00,0.0,WeatherDisplay:10.37,2013-02-11 06:25:00,
2013-02-10 22:27:00,41.5,34.2,30.02,ESE,119,0.0,0.0,75,0.00,CLR,FEW,0.00,0.0,WeatherDisplay:10.37,2013-02-11 06:27:00,
2013-02-10 22:28:00,41.5,34.2,30.02,ESE,119,0.0,0.0,75,0.00,CLR,FEW,0.00,0.0,WeatherDisplay:10.37,2013-02-11 06:28:00,
2013-02-10 22:31:00,41.6,34.3,30.02,ESE,119,0.0,0.0,75,0.00,CLR,FEW,0.00,0.0,WeatherDisplay:10.37,2013-02-11 06:31:00,
2013-02-10 22:32:00,41.6,34.3,30.02,ESE,119,0.0,0.0,75,0.00,CLR,FEW,0.00,0.0,WeatherDisplay:10.37,2013-02-11 06:32:00,
2013-02-10 22:33:00,41.6,34.6,30.02,ESE,119,0.0,0.0,76,0.00,CLR,FEW,0.00,0.0,WeatherDisplay:10.37,2013-02-11 06:33:00,
2013-02-10 22:37:00,41.6,34.6,30.02,ESE,119,0.0,0.0,76,0.00,CLR,FEW,0.00,0.0,WeatherDisplay:10.37,2013-02-11 06:37:00,
2013-02-10 22:38:00,41.6,34.9,30.02,ESE,119,0.0,0.0,77,0.00,CLR,FEW,0.00,0.0,WeatherDisplay:10.37,2013-02-11 06:38:00,
2013-02-10 22:39:00,41.6,34.9,30.02,ESE,119,0.0,0.0,77,0.00,CLR,FEW,0.00,0.0,WeatherDisplay:10.37,2013-02-11 06:39:00,
2013-02-10 22:42:00,41.6,34.9,30.02,ESE,119,0.0,0.0,77,0.00,CLR,FEW,0.00,0.0,WeatherDisplay:10.37,2013-02-11 06:42:00,
2013-02-10 22:44:00,41.5,34.8,30.02,ESE,119,0.0,0.0,77,0.00,CLR,FEW,0.00,0.0,WeatherDisplay:10.37,2013-02-11 06:44:00,
2013-02-10 22:45:00,41.5,34.8,30.02,ESE,119,0.0,0.0,77,0.00,CLR,FEW,0.00,0.0,WeatherDisplay:10.37,2013-02-11 06:45:00,
2013-02-10 22:47:00,41.3,34.6,30.02,ESE,119,0.0,0.0,77,0.00,CLR,FEW,0.00,0.0,WeatherDisplay:10.37,2013-02-11 06:47:00,
2013-02-10 22:49:00,41.2,34.9,30.02,ESE,119,0.0,0.0,78,0.00,CLR,FEW,0.00,0.0,WeatherDisplay:10.37,2013-02-11 06:49:00,
2013-02-10 22:50:00,41.2,34.9,30.02,ESE,119,0.0,0.0,78,0.00,CLR,FEW,0.00,0.0,WeatherDisplay:10.37,2013-02-11 06:50:00,
2013-02-10 22:52:00,41.1,34.8,30.02,ESE,119,0.0,0.0,78,0.00,CLR,FEW,0.00,0.0,WeatherDisplay:10.37,2013-02-11 06:52:00,
2013-02-10 22:54:00,41.1,34.4,30.02,ESE,119,0.0,0.0,77,0.00,CLR,FEW,0.00,0.0,WeatherDisplay:10.37,2013-02-11 06:54:00,
2013-02-10 22:56:00,40.9,34.2,30.02,ESE,119,0.0,0.0,77,0.00,CLR,FEW,0.00,0.0,WeatherDisplay:10.37,2013-02-11 06:56:00,
2013-02-10 22:57:00,40.8,34.1,30.02,ESE,119,0.0,0.0,77,0.00,CLR,FEW,0.00,0.0,WeatherDisplay:10.37,2013-02-11 06:57:00,
2013-02-10 22:59:00,40.8,34.5,30.02,ESE,119,0.0,0.0,78,0.00,CLR,FEW,0.00,0.0,WeatherDisplay:10.37,2013-02-11 06:59:00,
2013-02-10 23:01:00,40.6,34.3,30.01,ESE,119,0.0,0.0,78,0.00,CLR,FEW,0.00,0.0,WeatherDisplay:10.37,2013-02-11 07:01:00,
2013-02-10 23:02:00,40.6,34.3,30.01,ESE,119,0.0,0.0,78,0.00,CLR,FEW,0.00,0.0,WeatherDisplay:10.37,2013-02-11 07:02:00,
2013-02-10 23:04:00,40.6,34.3,30.01,ESE,119,0.0,0.0,78,0.00,CLR,FEW,0.00,0.0,WeatherDisplay:10.37,2013-02-11 07:04:00,
2013-02-10 23:06:00,40.6,34.3,30.01,ESE,119,0.0,0.0,78,0.00,CLR,FEW,0.00,0.0,WeatherDisplay:10.37,2013-02-11 07:06:00,
2013-02-10 23:07:00,40.5,34.2,30.01,ESE,119,0.0,0.0,78,0.00,CLR,FEW,0.00,0.0,WeatherDisplay:10.37,2013-02-11 07:07:00,
2013-02-10 23:09:00,40.6,34.3,30.01,ESE,119,0.0,0.0,78,0.00,CLR,FEW,0.00,0.0,WeatherDisplay:10.37,2013-02-11 07:09:00,
2013-02-10 23:11:00,40.5,34.2,30.01,ESE,119,0.0,0.0,78,0.00,CLR,FEW,0.00,0.0,WeatherDisplay:10.37,2013-02-11 07:11:00,
2013-02-10 23:13:00,40.5,34.2,30.01,ESE,119,0.0,0.0,78,0.00,CLR,FEW,0.00,0.0,WeatherDisplay:10.37,2013-02-11 07:13:00,
2013-02-10 23:15:00,40.5,34.2,30.01,ESE,119,0.0,0.0,78,0.00,CLR,FEW,0.00,0.0,WeatherDisplay:10.37,2013-02-11 07:15:00,
2013-02-10 23:16:00,40.5,34.2,30.01,ESE,119,0.0,0.0,78,0.00,CLR,FEW,0.00,0.0,WeatherDisplay:10.37,2013-02-11 07:16:00,
2013-02-10 23:17:00,40.5,33.9,30.01,ESE,119,0.0,0.0,77,0.00,CLR,FEW,0.00,0.0,WeatherDisplay:10.37,2013-02-11 07:17:00,
2013-02-10 23:18:00,40.5,34.2,30.01,ESE,109,0.0,0.0,78,0.00,CLR,FEW,0.00,0.0,WeatherDisplay:10.37,2013-02-11 07:18:00,
2013-02-10 23:20:00,40.5,33.9,30.01,ESE,108,0.0,0.0,77,0.00,CLR,FEW,0.00,0.0,WeatherDisplay:10.37,2013-02-11 07:20:00,
2013-02-10 23:21:00,40.5,33.9,30.01,ESE,108,0.0,0.0,77,0.00,CLR,FEW,0.00,0.0,WeatherDisplay:10.37,2013-02-11 07:21:00,
2013-02-10 23:22:00,40.5,33.9,30.01,ESE,108,0.0,0.0,77,0.00,CLR,FEW,0.00,0.0,WeatherDisplay:10.37,2013-02-11 07:22:00,
2013-02-10 23:24:00,40.5,33.9,30.01,ESE,108,0.0,0.0,77,0.00,CLR,FEW,0.00,0.0,WeatherDisplay:10.37,2013-02-11 07:24:00,
2013-02-10 23:26:00,40.5,33.9,30.01,ESE,108,0.0,0.0,77,0.00,CLR,FEW,0.00,0.0,WeatherDisplay:10.37,2013-02-11 07:26:00,
2013-02-10 23:27:00,40.5,33.9,30.01,ESE,108,0.0,0.0,77,0.00,CLR,FEW,0.00,0.0,WeatherDisplay:10.37,2013-02-11 07:27:00,
2013-02-10 23:28:00,40.5,33.9,30.01,ESE,108,0.0,0.0,77,0.00,CLR,FEW,0.00,0.0,WeatherDisplay:10.37,2013-02-11 07:28:00,
2013-02-10 23:29:00,40.5,33.9,30.01,ESE,108,0.0,0.0,77,0.00,CLR,FEW,0.00,0.0,WeatherDisplay:10.37,2013-02-11 07:29:00,
2013-02-10 23:31:00,40.5,33.9,30.01,ESE,108,0.0,0.0,77,0.00,CLR,FEW,0.00,0.0,WeatherDisplay:10.37,2013-02-11 07:31:00,
2013-02-10 23:32:00,40.5,33.9,30.01,ESE,108,0.0,0.0,77,0.00,CLR,FEW,0.00,0.0,WeatherDisplay:10.37,2013-02-11 07:32:00,
2013-02-10 23:34:00,40.5,33.9,30.01,ESE,108,0.0,0.0,77,0.00,CLR,FEW,0.00,0.0,WeatherDisplay:10.37,2013-02-11 07:34:00,
2013-02-10 23:36:00,40.5,33.9,30.01,ESE,108,0.0,0.0,77,0.00,CLR,FEW,0.00,0.0,WeatherDisplay:10.37,2013-02-11 07:36:00,
2013-02-10 23:39:00,40.5,33.9,30.01,ESE,108,0.0,0.0,77,0.00,CLR,FEW,0.00,0.0,WeatherDisplay:10.37,2013-02-11 07:39:00,
2013-02-10 23:40:00,40.5,33.9,30.01,ESE,108,0.0,0.0,77,0.00,CLR,FEW,0.00,0.0,WeatherDisplay:10.37,2013-02-11 07:40:00,
2013-02-10 23:41:00,40.5,33.9,30.01,ESE,108,0.0,0.0,77,0.00,CLR,FEW,0.00,0.0,WeatherDisplay:10.37,2013-02-11 07:41:00,
2013-02-10 23:44:00,40.5,33.9,30.01,ESE,108,0.0,0.0,77,0.00,CLR,FEW,0.00,0.0,WeatherDisplay:10.37,2013-02-11 07:44:00,
2013-02-10 23:45:00,40.5,33.9,30.01,ESE,108,0.0,0.0,77,0.00,CLR,FEW,0.00,0.0,WeatherDisplay:10.37,2013-02-11 07:45:00,
2013-02-10 23:46:00,40.5,33.9,30.02,ESE,108,0.0,0.0,77,0.00,CLR,FEW,0.00,0.0,WeatherDisplay:10.37,2013-02-11 07:46:00,
2013-02-10 23:47:00,40.5,33.9,30.02,ESE,108,0.0,0.0,77,0.00,CLR,FEW,0.00,0.0,WeatherDisplay:10.37,2013-02-11 07:47:00,
2013-02-10 23:49:00,40.5,33.9,30.02,ESE,108,0.0,0.0,77,0.00,CLR,FEW,0.00,0.0,WeatherDisplay:10.37,2013-02-11 07:49:00,
2013-02-10 23:50:00,40.5,33.9,30.02,ESE,108,0.0,0.0,77,0.00,CLR,FEW,0.00,0.0,WeatherDisplay:10.37,2013-02-11 07:50:00,
2013-02-10 23:52:00,40.5,33.9,30.02,ESE,108,0.0,0.0,77,0.00,CLR,FEW,0.00,0.0,WeatherDisplay:10.37,2013-02-11 07:52:00,
2013-02-10 23:54:00,40.5,33.9,30.02,ESE,108,0.0,0.0,77,0.00,CLR,FEW,0.00,0.0,WeatherDisplay:10.37,2013-02-11 07:54:00,
2013-02-10 23:55:00,40.5,33.9,30.02,ESE,108,0.0,0.0,77,0.00,CLR,FEW,0.00,0.0,WeatherDisplay:10.37,2013-02-11 07:55:00,
2013-02-10 23:58:00,40.5,34.2,30.02,ESE,108,0.0,0.0,78,0.00,CLR,FEW,0.00,0.0,WeatherDisplay:10.37,2013-02-11 07:58:00,
2013-02-10 23:59:00,40.5,34.2,30.02,ESE,108,0.0,0.0,78,0.00,CLR,FEW,0.00,0.0,WeatherDisplay:10.37,2013-02-11 07:59:00,